UAE60L FACT-OMDB

Flight info

Callsign UAE60L
Flight time 8h 57m
Altitude 33000
Route TETAN UZ39 BLV DCT TEVAP UG467 EXEMA DCT VBR UM310 DV/N0485F370 UL437 VEDET B400 RAPDO/N0480F390 B400 DAXAM Y414 DEDSO R401 VELIK/N0475F380 R401 MUSAP/N0466F350 R401 PEDOG Q308 KIPOK Q568 IMPED
Aircraft B77W/H-SDE1E2E3FGHIJ2J3J4J5M1RWXY/LB1D1

Departure

Time 2026-04-21 15:36
Airport Cape Town International Airport (FACT)

Arrival

Time 2026-04-22 00:33
Airport Dubai International Airport (OMDB)
Time Latitude Longitude Altitude Speed Heading
2026-04-21 14:33 -33.97451 18.60163 165 ft 0 kts 75°
2026-04-21 15:20 -33.97458 18.60139 164 ft 3 kts 70°
2026-04-21 15:20 -33.97463 18.60120 164 ft 3 kts 67°
2026-04-21 15:20 -33.97470 18.60101 164 ft 3 kts 46°
2026-04-21 15:20 -33.97480 18.60090 164 ft 3 kts 16°
2026-04-21 15:21 -33.97494 18.60087 164 ft 3 kts 347°
2026-04-21 15:21 -33.97513 18.60093 164 ft 3 kts 340°
2026-04-21 15:21 -33.97530 18.60101 164 ft 2 kts 343°
2026-04-21 15:21 -33.97537 18.60103 164 ft 0 kts 343°
2026-04-21 15:27 -33.97511 18.60094 164 ft 12 kts 343°
2026-04-21 15:27 -33.97429 18.60065 164 ft 12 kts 344°
2026-04-21 15:27 -33.97337 18.60034 164 ft 16 kts 345°
2026-04-21 15:28 -33.97207 18.59994 164 ft 22 kts 346°
2026-04-21 15:28 -33.97071 18.59959 164 ft 18 kts 349°
2026-04-21 15:28 -33.96951 18.59923 164 ft 17 kts 345°
2026-04-21 15:28 -33.96838 18.59886 164 ft 16 kts 345°
2026-04-21 15:29 -33.96731 18.59850 164 ft 16 kts 345°
2026-04-21 15:29 -33.96617 18.59816 164 ft 18 kts 347°
2026-04-21 15:29 -33.96500 18.59782 164 ft 17 kts 349°
2026-04-21 15:29 -33.96388 18.59757 164 ft 16 kts 349°
2026-04-21 15:30 -33.96297 18.59738 164 ft 10 kts 351°
2026-04-21 15:30 -33.96282 18.59735 164 ft 0 kts 351°
2026-04-21 15:31 -33.96277 18.59734 164 ft 4 kts 351°
2026-04-21 15:31 -33.96227 18.59737 164 ft 10 kts 35°
2026-04-21 15:31 -33.96176 18.59791 164 ft 9 kts 44°
2026-04-21 15:32 -33.96130 18.59846 164 ft 9 kts 45°
2026-04-21 15:32 -33.96090 18.59895 164 ft 4 kts 46°
2026-04-21 15:32 -33.96082 18.59905 164 ft 0 kts 46°
2026-04-21 15:33 -33.96070 18.59920 164 ft 3 kts 46°
2026-04-21 15:34 -33.96054 18.59942 164 ft 3 kts 54°
2026-04-21 15:34 -33.96039 18.59976 164 ft 5 kts 71°
2026-04-21 15:34 -33.96045 18.60015 164 ft 5 kts 131°
2026-04-21 15:34 -33.96073 18.60030 164 ft 1 kts 162°
2026-04-21 15:35 -33.96102 18.60041 164 ft 22 kts 163°
2026-04-21 15:35 -33.96563 18.60189 165 ft 116 kts 165°
2026-04-21 15:35 -33.97639 18.60533 191 ft 193 kts 167°
2026-04-21 15:36 -33.98994 18.61010 849 ft 215 kts 162°
2026-04-21 15:36 -34.00210 18.62202 1809 ft 234 kts 128°
2026-04-21 15:36 -34.00630 18.64096 2821 ft 241 kts 94°
2026-04-21 15:36 -34.00308 18.66122 3515 ft 251 kts 74°
2026-04-21 15:37 -33.99649 18.68070 4117 ft 260 kts 64°
2026-04-21 15:37 -33.98799 18.70062 4627 ft 277 kts 61°
2026-04-21 15:37 -33.97873 18.72158 5235 ft 290 kts 60°
2026-04-21 15:37 -33.96907 18.74301 6181 ft 290 kts 60°
2026-04-21 15:38 -33.95925 18.76469 6904 ft 299 kts 60°
2026-04-21 15:38 -33.94924 18.78679 7682 ft 305 kts 60°
2026-04-21 15:38 -33.93901 18.80939 8446 ft 310 kts 60°
2026-04-21 15:38 -33.92859 18.83244 9193 ft 316 kts 60°
2026-04-21 15:39 -33.91801 18.85581 9939 ft 321 kts 60°
2026-04-21 15:39 -33.90714 18.87979 10576 ft 330 kts 60°
2026-04-21 15:39 -33.89604 18.90428 11007 ft 346 kts 60°
2026-04-21 15:39 -33.88429 18.93021 11403 ft 364 kts 60°
2026-04-21 15:40 -33.87172 18.95792 11735 ft 384 kts 60°
2026-04-21 15:40 -33.85863 18.98674 12103 ft 402 kts 60°
2026-04-21 15:40 -33.84487 19.01704 12569 ft 416 kts 60°
2026-04-21 15:40 -33.83085 19.04788 13153 ft 426 kts 60°
2026-04-21 15:41 -33.81652 19.07938 13852 ft 432 kts 60°
2026-04-21 15:41 -33.80222 19.11139 14560 ft 437 kts 59°
2026-04-21 15:41 -33.79254 19.13285 15042 ft 440 kts 59°
2026-04-21 15:41 -33.77269 19.17651 15911 ft 448 kts 59°
2026-04-21 15:42 -33.75780 19.20908 16551 ft 454 kts 59°
2026-04-21 15:42 -33.74748 19.23163 16950 ft 458 kts 58°
2026-04-21 15:42 -33.72703 19.27626 17827 ft 463 kts 58°
2026-04-21 15:42 -33.71144 19.31024 18439 ft 468 kts 58°
2026-04-21 15:43 -33.69558 19.34483 19072 ft 471 kts 58°
2026-04-21 15:43 -33.67975 19.37936 19714 ft 474 kts 58°
2026-04-21 15:43 -33.66396 19.41386 20283 ft 478 kts 58°
2026-04-21 15:43 -33.64824 19.44929 20819 ft 484 kts 60°
2026-04-21 15:44 -33.63334 19.48540 21288 ft 490 kts 62°
2026-04-21 15:44 -33.61866 19.52245 21890 ft 492 kts 63°
2026-04-21 15:44 -33.60385 19.55988 22414 ft 496 kts 63°
2026-04-21 15:44 -33.58879 19.59734 22943 ft 499 kts 62°
2026-04-21 15:45 -33.57367 19.63459 23431 ft 502 kts 62°
2026-04-21 15:45 -33.55820 19.67247 23987 ft 504 kts 62°
2026-04-21 15:45 -33.54265 19.71043 24360 ft 510 kts 62°
2026-04-21 15:45 -33.52695 19.74870 24797 ft 514 kts 62°
2026-04-21 15:46 -33.51113 19.78722 25256 ft 517 kts 61°
2026-04-21 15:46 -33.49529 19.82638 25716 ft 520 kts 62°
2026-04-21 15:46 -33.47970 19.86484 26124 ft 523 kts 61°
2026-04-21 15:46 -33.46363 19.90419 26525 ft 527 kts 60°
2026-04-21 15:47 -33.45278 19.93066 26793 ft 529 kts 60°
2026-04-21 15:47 -33.43648 19.97032 27134 ft 533 kts 60°
2026-04-21 15:47 -33.41457 20.02351 27684 ft 536 kts 60°
2026-04-21 15:47 -33.39815 20.06367 28070 ft 539 kts 60°
2026-04-21 15:48 -33.38163 20.10405 28530 ft 539 kts 59°
2026-04-21 15:48 -33.36503 20.14420 28861 ft 542 kts 59°
2026-04-21 15:48 -33.34826 20.18458 29097 ft 547 kts 59°
2026-04-21 15:48 -33.33674 20.21224 29312 ft 549 kts 59°
2026-04-21 15:49 -33.31424 20.26627 30046 ft 544 kts 58°
2026-04-21 15:49 -33.29737 20.30673 30486 ft 544 kts 58°
2026-04-21 15:49 -33.28601 20.33357 30761 ft 541 kts 57°
2026-04-21 15:49 -33.26669 20.37189 31214 ft 535 kts 50°
2026-04-21 15:50 -33.24558 20.40791 31633 ft 531 kts 48°
2026-04-21 15:50 -33.22331 20.44318 32098 ft 526 kts 46°
2026-04-21 15:50 -33.20054 20.47698 32500 ft 524 kts 44°
2026-04-21 15:50 -33.17723 20.51006 32887 ft 521 kts 42°
2026-04-21 15:51 -33.14576 20.55376 33120 ft 522 kts 42°
2026-04-21 15:51 -33.12993 20.57579 33117 ft 521 kts 41°
2026-04-21 15:51 -33.07565 20.65184 33298 ft 518 kts 41°
2026-04-21 15:52 -33.03604 20.70764 33666 ft 520 kts 43°
2026-04-21 15:52 -33.01330 20.74009 34161 ft 515 kts 43°
2026-04-21 15:52 -32.99046 20.77259 34632 ft 511 kts 43°
2026-04-21 15:53 -32.96741 20.80526 34875 ft 512 kts 43°
2026-04-21 15:53 -32.94464 20.83746 35083 ft 513 kts 43°
2026-04-21 15:53 -32.89855 20.90245 35095 ft 512 kts 42°
2026-04-21 15:54 -32.85271 20.96692 35103 ft 511 kts 43°
2026-04-21 15:54 -32.80695 21.03113 35117 ft 510 kts 43°
2026-04-21 15:55 -32.76099 21.09551 35116 ft 511 kts 43°
2026-04-21 15:55 -32.71487 21.16001 35113 ft 512 kts 42°
2026-04-21 15:56 -32.66888 21.22421 35107 ft 507 kts 42°
2026-04-21 15:56 -32.62353 21.28740 35113 ft 507 kts 42°
2026-04-21 15:57 -32.57767 21.35120 35108 ft 508 kts 42°
2026-04-21 15:57 -32.53168 21.41507 35108 ft 507 kts 42°
2026-04-21 15:58 -32.48609 21.47827 35123 ft 507 kts 42°
2026-04-21 15:58 -32.44025 21.54171 35125 ft 507 kts 42°
2026-04-21 15:59 -32.39440 21.60506 35118 ft 507 kts 42°
2026-04-21 15:59 -32.34846 21.66842 35119 ft 506 kts 42°
2026-04-21 16:00 -32.30266 21.73148 35133 ft 506 kts 42°
2026-04-21 16:00 -32.25691 21.79437 35134 ft 506 kts 42°
2026-04-21 16:01 -32.21089 21.85751 35125 ft 506 kts 42°
2026-04-21 16:01 -32.16518 21.92014 35124 ft 506 kts 42°
2026-04-21 16:02 -32.11884 21.98352 35134 ft 506 kts 42°
2026-04-21 16:02 -32.07300 22.04610 35132 ft 506 kts 42°
2026-04-21 16:03 -32.02699 22.10881 35123 ft 506 kts 42°
2026-04-21 16:03 -31.98078 22.17169 35128 ft 506 kts 42°
2026-04-21 16:04 -31.93482 22.23413 35130 ft 506 kts 42°
2026-04-21 16:04 -31.89637 22.28629 35122 ft 506 kts 41°
2026-04-21 16:05 -31.84255 22.35917 35113 ft 507 kts 41°
2026-04-21 16:05 -31.79628 22.42172 35121 ft 507 kts 41°
2026-04-21 16:06 -31.75002 22.48414 35123 ft 506 kts 41°
2026-04-21 16:06 -31.70374 22.54649 35082 ft 508 kts 41°
2026-04-21 16:07 -31.65701 22.60935 35075 ft 509 kts 41°
2026-04-21 16:07 -31.61043 22.67190 35088 ft 508 kts 41°
2026-04-21 16:08 -31.54054 22.76555 35078 ft 508 kts 41°
2026-04-21 16:09 -31.49429 22.82740 35075 ft 510 kts 41°
2026-04-21 16:09 -31.44763 22.88970 35078 ft 509 kts 41°
2026-04-21 16:10 -31.40127 22.95151 35078 ft 509 kts 41°
2026-04-21 16:10 -31.35421 23.01446 35071 ft 509 kts 41°
2026-04-21 16:11 -31.30746 23.07662 35110 ft 509 kts 40°
2026-04-21 16:11 -31.26053 23.13873 35142 ft 512 kts 40°
2026-04-21 16:12 -31.21317 23.20131 35146 ft 513 kts 40°
2026-04-21 16:12 -31.16592 23.26374 35166 ft 511 kts 39°
2026-04-21 16:13 -31.11971 23.32684 35169 ft 512 kts 40°
2026-04-21 16:13 -31.07378 23.39025 35176 ft 515 kts 40°
2026-04-21 16:14 -31.02736 23.45398 35180 ft 516 kts 40°
2026-04-21 16:14 -30.98111 23.51726 35186 ft 514 kts 40°
2026-04-21 16:15 -30.93442 23.58117 35190 ft 515 kts 40°
2026-04-21 16:15 -30.88858 23.64439 35191 ft 515 kts 40°
2026-04-21 16:16 -30.84218 23.70794 35195 ft 515 kts 40°
2026-04-21 16:16 -30.79555 23.77159 35198 ft 516 kts 40°
2026-04-21 16:17 -30.74888 23.83514 35198 ft 516 kts 39°
2026-04-21 16:17 -30.70261 23.89803 35199 ft 513 kts 39°
2026-04-21 16:18 -30.65614 23.96109 35200 ft 514 kts 39°
2026-04-21 16:18 -30.60979 24.02387 35201 ft 513 kts 39°
2026-04-21 16:19 -30.56322 24.08687 35201 ft 511 kts 39°
2026-04-21 16:19 -30.51702 24.14925 35201 ft 511 kts 39°
2026-04-21 16:20 -30.47068 24.21173 35200 ft 511 kts 39°
2026-04-21 16:20 -30.42433 24.27412 35201 ft 511 kts 39°
2026-04-21 16:21 -30.37772 24.33677 35200 ft 510 kts 39°
2026-04-21 16:21 -30.33164 24.39860 35201 ft 507 kts 39°
2026-04-21 16:22 -30.28568 24.46017 35200 ft 508 kts 39°
2026-04-21 16:22 -30.23936 24.52212 35201 ft 509 kts 39°
2026-04-21 16:23 -30.19310 24.58391 35201 ft 510 kts 39°
2026-04-21 16:23 -30.14651 24.64603 35201 ft 510 kts 39°
2026-04-21 16:24 -30.10008 24.70785 35201 ft 509 kts 39°
2026-04-21 16:24 -30.05358 24.76966 35200 ft 509 kts 39°
2026-04-21 16:25 -30.00696 24.83154 35201 ft 510 kts 39°
2026-04-21 16:25 -29.96078 24.89274 35200 ft 510 kts 39°
2026-04-21 16:26 -29.91411 24.95469 35151 ft 509 kts 39°
2026-04-21 16:26 -29.86774 25.01613 35113 ft 507 kts 38°
2026-04-21 16:27 -29.82133 25.07723 35112 ft 508 kts 38°
2026-04-21 16:27 -29.77457 25.13868 35112 ft 509 kts 38°
2026-04-21 16:28 -29.72830 25.19952 35112 ft 510 kts 39°
2026-04-21 16:28 -29.68595 25.26516 35112 ft 518 kts 46°
2026-04-21 16:29 -29.65341 25.32440 35112 ft 524 kts 49°
2026-04-21 16:29 -29.60831 25.40734 35112 ft 525 kts 47°
2026-04-21 16:30 -29.56877 25.47784 35112 ft 524 kts 47°
2026-04-21 16:30 -29.52908 25.54812 35112 ft 524 kts 47°
2026-04-21 16:31 -29.48987 25.61823 35112 ft 524 kts 47°
2026-04-21 16:31 -29.45047 25.68809 35112 ft 521 kts 47°
2026-04-21 16:32 -29.41095 25.75790 35111 ft 519 kts 47°
2026-04-21 16:32 -29.37148 25.82745 35112 ft 520 kts 47°
2026-04-21 16:33 -29.33224 25.89648 35112 ft 520 kts 46°
2026-04-21 16:33 -29.29289 25.96559 35112 ft 519 kts 46°
2026-04-21 16:34 -29.25357 26.03492 35112 ft 519 kts 47°
2026-04-21 16:34 -29.21398 26.10427 35112 ft 519 kts 46°
2026-04-21 16:35 -29.17439 26.17325 35112 ft 519 kts 46°
2026-04-21 16:35 -29.13473 26.24229 35111 ft 519 kts 46°
2026-04-21 16:36 -29.09504 26.31053 35112 ft 516 kts 44°
2026-04-21 16:36 -29.05142 26.37440 35113 ft 510 kts 39°
2026-04-21 16:37 -29.00540 26.43616 35111 ft 506 kts 39°
2026-04-21 16:37 -28.96028 26.49743 35112 ft 506 kts 39°
2026-04-21 16:38 -28.91537 26.55920 35112 ft 507 kts 39°
2026-04-21 16:38 -28.87035 26.62148 35112 ft 508 kts 40°
2026-04-21 16:39 -28.82559 26.68398 35112 ft 508 kts 40°
2026-04-21 16:39 -28.78072 26.74629 35112 ft 508 kts 39°
2026-04-21 16:40 -28.73601 26.80817 35112 ft 508 kts 39°
2026-04-21 16:40 -28.69107 26.87024 35112 ft 508 kts 39°
2026-04-21 16:41 -28.65362 26.92189 35112 ft 508 kts 39°
2026-04-21 16:41 -28.60109 26.99421 35112 ft 508 kts 39°
2026-04-21 16:42 -28.55606 27.05610 35113 ft 508 kts 39°
2026-04-21 16:42 -28.51851 27.10765 35123 ft 507 kts 39°
2026-04-21 16:43 -28.47365 27.16914 35131 ft 507 kts 39°
2026-04-21 16:43 -28.42862 27.23077 35149 ft 507 kts 39°
2026-04-21 16:44 -28.38345 27.29251 35152 ft 507 kts 39°
2026-04-21 16:44 -28.33835 27.35406 35161 ft 507 kts 39°
2026-04-21 16:45 -28.29322 27.41556 35161 ft 507 kts 39°
2026-04-21 16:45 -28.24830 27.47669 35173 ft 507 kts 39°
2026-04-21 16:46 -28.20321 27.53796 35178 ft 507 kts 39°
2026-04-21 16:46 -28.15800 27.59930 35184 ft 507 kts 39°
2026-04-21 16:47 -28.11291 27.66040 35182 ft 506 kts 40°
2026-04-21 16:47 -28.06759 27.72171 35199 ft 506 kts 40°
2026-04-21 16:48 -28.02264 27.78244 35207 ft 506 kts 40°
2026-04-21 16:48 -27.97747 27.84337 35209 ft 505 kts 40°
2026-04-21 16:49 -27.93228 27.90425 35208 ft 505 kts 40°
2026-04-21 16:49 -27.88704 27.96511 35217 ft 505 kts 39°
2026-04-21 16:50 -27.84171 28.02600 35218 ft 505 kts 39°
2026-04-21 16:50 -27.79667 28.08642 35219 ft 505 kts 39°
2026-04-21 16:51 -27.75201 28.14624 35221 ft 504 kts 39°
2026-04-21 16:51 -27.70692 28.20656 35222 ft 504 kts 39°
2026-04-21 16:52 -27.66160 28.26709 35224 ft 505 kts 39°
2026-04-21 16:52 -27.61621 28.32763 35227 ft 505 kts 39°
2026-04-21 16:53 -27.57089 28.38800 35228 ft 505 kts 39°
2026-04-21 16:53 -27.52540 28.44850 35230 ft 505 kts 39°
2026-04-21 16:54 -27.47995 28.50887 35229 ft 505 kts 39°
2026-04-21 16:54 -27.43432 28.56940 35229 ft 505 kts 39°
2026-04-21 16:55 -27.38900 28.62942 35230 ft 505 kts 39°
2026-04-21 16:55 -27.34366 28.68940 35229 ft 505 kts 39°
2026-04-21 16:56 -27.29861 28.74891 35230 ft 505 kts 39°
2026-04-21 16:56 -27.25315 28.80887 35229 ft 505 kts 39°
2026-04-21 16:57 -27.20745 28.86908 35228 ft 505 kts 39°
2026-04-21 16:57 -27.16214 28.92867 35227 ft 505 kts 39°
2026-04-21 16:58 -27.11651 28.98862 35225 ft 505 kts 39°
2026-04-21 16:58 -27.07083 29.04854 35224 ft 505 kts 39°
2026-04-21 16:59 -27.02516 29.10837 35222 ft 505 kts 39°
2026-04-21 16:59 -26.97931 29.16835 35222 ft 505 kts 39°
2026-04-21 17:00 -26.93357 29.22810 35218 ft 505 kts 39°
2026-04-21 17:00 -26.89560 29.27766 35217 ft 505 kts 40°
2026-04-21 17:01 -26.84300 29.34619 35213 ft 505 kts 40°
2026-04-21 17:01 -26.79696 29.40610 35207 ft 506 kts 40°
2026-04-21 17:02 -26.75095 29.46589 35204 ft 506 kts 40°
2026-04-21 17:02 -26.70509 29.52540 35201 ft 505 kts 40°
2026-04-21 17:03 -26.65949 29.58450 35203 ft 505 kts 40°
2026-04-21 17:03 -26.61328 29.64430 35202 ft 505 kts 40°
2026-04-21 17:04 -26.56737 29.70364 35202 ft 504 kts 40°
2026-04-21 17:04 -26.52183 29.76242 35200 ft 503 kts 40°
2026-04-21 17:05 -26.47587 29.82166 35201 ft 504 kts 40°
2026-04-21 17:05 -26.43003 29.88067 35201 ft 504 kts 40°
2026-04-21 17:06 -26.38429 29.93948 35200 ft 503 kts 40°
2026-04-21 17:06 -26.33932 29.99722 35201 ft 503 kts 40°
2026-04-21 17:07 -26.30071 30.04673 35201 ft 503 kts 40°
2026-04-21 17:07 -26.24722 30.11523 35199 ft 504 kts 40°
2026-04-21 17:08 -26.20116 30.17414 35198 ft 505 kts 40°
2026-04-21 17:08 -26.15488 30.23324 35201 ft 504 kts 40°
2026-04-21 17:09 -26.08597 30.32112 35192 ft 504 kts 40°
2026-04-21 17:09 -26.03975 30.37996 35191 ft 505 kts 40°
2026-04-21 17:10 -25.99363 30.43859 35188 ft 504 kts 40°
2026-04-21 17:10 -25.94748 30.49719 35179 ft 504 kts 40°
2026-04-21 17:11 -25.90135 30.55570 35196 ft 503 kts 40°
2026-04-21 17:11 -25.85525 30.61407 35200 ft 503 kts 40°
2026-04-21 17:12 -25.80899 30.67259 35201 ft 503 kts 40°
2026-04-21 17:12 -25.76291 30.73079 35201 ft 503 kts 40°
2026-04-21 17:13 -25.71658 30.78924 35200 ft 503 kts 40°
2026-04-21 17:13 -25.67058 30.84721 35201 ft 503 kts 40°
2026-04-21 17:14 -25.62452 30.90517 35200 ft 501 kts 40°
2026-04-21 17:14 -25.57842 30.96311 35201 ft 501 kts 40°
2026-04-21 17:15 -25.53225 31.02106 35201 ft 503 kts 40°
2026-04-21 17:15 -25.48592 31.07914 35200 ft 503 kts 40°
2026-04-21 17:16 -25.44020 31.13639 35201 ft 500 kts 40°
2026-04-21 17:16 -25.39444 31.19361 35201 ft 500 kts 40°
2026-04-21 17:17 -25.34825 31.25130 35200 ft 502 kts 40°
2026-04-21 17:17 -25.30194 31.30906 35201 ft 502 kts 41°
2026-04-21 17:18 -25.25584 31.36650 35200 ft 500 kts 41°
2026-04-21 17:18 -25.20931 31.42440 35200 ft 500 kts 40°
2026-04-21 17:19 -25.16344 31.48140 35201 ft 501 kts 40°
2026-04-21 17:19 -25.11673 31.53938 35200 ft 501 kts 41°
2026-04-21 17:20 -25.07093 31.59617 35201 ft 501 kts 41°
2026-04-21 17:20 -25.02438 31.65381 35201 ft 501 kts 40°
2026-04-21 17:21 -24.97797 31.71120 35200 ft 501 kts 40°
2026-04-21 17:21 -24.93192 31.76830 35201 ft 501 kts 41°
2026-04-21 17:22 -24.88562 31.82547 35200 ft 501 kts 41°
2026-04-21 17:22 -24.83901 31.88281 35201 ft 501 kts 40°
2026-04-21 17:23 -24.79261 31.93982 35201 ft 500 kts 40°
2026-04-21 17:23 -24.74604 31.99700 35200 ft 500 kts 41°
2026-04-21 17:24 -24.70199 32.05630 35201 ft 504 kts 46°
2026-04-21 17:24 -24.65985 32.11844 35201 ft 505 kts 46°
2026-04-21 17:25 -24.61705 32.17929 35201 ft 505 kts 45°
2026-04-21 17:25 -24.57362 32.24057 35201 ft 504 kts 46°
2026-04-21 17:26 -24.53090 32.30082 35133 ft 504 kts 46°
2026-04-21 17:26 -24.48587 32.35933 35075 ft 500 kts 40°
2026-04-21 17:27 -24.43779 32.41493 35069 ft 500 kts 40°
2026-04-21 17:27 -24.39028 32.47064 35082 ft 499 kts 41°
2026-04-21 17:28 -24.34358 32.52620 35083 ft 499 kts 41°
2026-04-21 17:28 -24.29677 32.58240 35082 ft 500 kts 41°
2026-04-21 17:29 -24.24963 32.63863 35075 ft 500 kts 41°
2026-04-21 17:29 -24.21044 32.68519 35082 ft 500 kts 41°
2026-04-21 17:30 -24.16297 32.74153 35082 ft 499 kts 41°
2026-04-21 17:30 -24.10556 32.80248 35081 ft 491 kts 30°
2026-04-21 17:31 -24.05689 32.83363 35084 ft 484 kts 19°
2026-04-21 17:31 -23.99532 32.86255 35082 ft 478 kts 16°
2026-04-21 17:32 -23.93421 32.89077 35082 ft 477 kts 17°
2026-04-21 17:32 -23.87346 32.91999 35083 ft 478 kts 18°
2026-04-21 17:33 -23.81244 32.94978 35082 ft 479 kts 18°
2026-04-21 17:33 -23.75201 32.97955 35083 ft 479 kts 18°
2026-04-21 17:34 -23.69127 33.00948 35082 ft 479 kts 18°
2026-04-21 17:34 -23.63048 33.03937 35082 ft 479 kts 18°
2026-04-21 17:35 -23.56991 33.06911 35083 ft 479 kts 18°
2026-04-21 17:35 -23.50893 33.09902 35082 ft 479 kts 18°
2026-04-21 17:36 -23.44849 33.12863 35083 ft 479 kts 18°
2026-04-21 17:36 -23.38767 33.15839 35083 ft 479 kts 18°
2026-04-21 17:37 -23.32681 33.18815 35082 ft 479 kts 18°
2026-04-21 17:37 -23.26606 33.21782 35083 ft 479 kts 18°
2026-04-21 17:38 -23.20494 33.24764 35082 ft 480 kts 18°
2026-04-21 17:38 -23.14418 33.27726 35082 ft 479 kts 18°
2026-04-21 17:39 -23.08314 33.30698 35083 ft 480 kts 18°
2026-04-21 17:39 -23.02255 33.33645 35082 ft 480 kts 18°
2026-04-21 17:40 -22.96138 33.36618 35082 ft 480 kts 18°
2026-04-21 17:40 -22.90070 33.39564 35083 ft 480 kts 18°
2026-04-21 17:41 -22.83965 33.42525 35082 ft 480 kts 18°
2026-04-21 17:41 -22.77871 33.45478 35083 ft 480 kts 18°
2026-04-21 17:42 -22.71769 33.48431 35083 ft 480 kts 18°
2026-04-21 17:42 -22.65666 33.51383 35082 ft 480 kts 18°
2026-04-21 17:43 -22.59608 33.54309 35083 ft 480 kts 18°
2026-04-21 17:43 -22.53506 33.57254 35082 ft 480 kts 18°
2026-04-21 17:44 -22.47425 33.60187 35082 ft 480 kts 18°
2026-04-21 17:44 -22.41334 33.63121 35083 ft 480 kts 18°
2026-04-21 17:45 -22.35215 33.66065 35082 ft 480 kts 18°
2026-04-21 17:45 -22.29120 33.68996 35083 ft 480 kts 18°
2026-04-21 17:46 -22.23062 33.71905 35078 ft 480 kts 20°
2026-04-21 17:46 -22.16835 33.74894 34995 ft 492 kts 21°
2026-04-21 17:47 -22.10552 33.77905 34993 ft 500 kts 21°
2026-04-21 17:47 -22.04172 33.80961 34994 ft 502 kts 21°
2026-04-21 17:48 -21.97808 33.84006 34994 ft 501 kts 21°
2026-04-21 17:48 -21.91465 33.87038 34993 ft 500 kts 21°
2026-04-21 17:49 -21.85099 33.90078 34994 ft 500 kts 21°
2026-04-21 17:49 -21.78679 33.93140 34994 ft 501 kts 21°
2026-04-21 17:50 -21.72339 33.96162 34993 ft 501 kts 21°
2026-04-21 17:50 -21.65994 33.99182 34994 ft 501 kts 21°
2026-04-21 17:51 -21.59624 34.02212 34994 ft 501 kts 21°
2026-04-21 17:51 -21.53252 34.05241 34994 ft 501 kts 21°
2026-04-21 17:52 -21.46882 34.08264 34994 ft 501 kts 21°
2026-04-21 17:52 -21.40517 34.11284 34994 ft 501 kts 21°
2026-04-21 17:53 -21.34127 34.14311 34994 ft 501 kts 21°
2026-04-21 17:53 -21.27746 34.17331 34994 ft 501 kts 21°
2026-04-21 17:54 -21.21417 34.20325 34993 ft 501 kts 21°
2026-04-21 17:54 -21.15061 34.23328 34994 ft 501 kts 21°
2026-04-21 17:55 -21.08687 34.26337 34994 ft 500 kts 21°
2026-04-21 17:55 -21.02296 34.29351 34993 ft 501 kts 21°
2026-04-21 17:56 -20.96002 34.32316 34994 ft 500 kts 21°
2026-04-21 17:56 -20.89576 34.35341 35106 ft 499 kts 21°
2026-04-21 17:57 -20.83214 34.38333 35112 ft 499 kts 21°
2026-04-21 17:57 -20.76868 34.41315 35112 ft 498 kts 21°
2026-04-21 17:58 -20.70516 34.44296 35112 ft 498 kts 21°
2026-04-21 17:58 -20.64195 34.47261 35112 ft 498 kts 21°
2026-04-21 17:59 -20.57871 34.50224 35112 ft 498 kts 21°
2026-04-21 17:59 -20.51517 34.53198 35112 ft 498 kts 21°
2026-04-21 18:00 -20.45183 34.56161 35113 ft 498 kts 21°
2026-04-21 18:00 -20.38824 34.59132 35112 ft 498 kts 21°
2026-04-21 18:01 -20.32484 34.62092 35112 ft 497 kts 21°
2026-04-21 18:01 -20.26136 34.65053 35112 ft 496 kts 21°
2026-04-21 18:02 -20.19822 34.67996 35112 ft 495 kts 21°
2026-04-21 18:02 -20.13542 34.70920 35112 ft 496 kts 21°
2026-04-21 18:03 -20.07203 34.73872 35112 ft 497 kts 21°
2026-04-21 18:03 -20.00857 34.76827 35112 ft 496 kts 21°
2026-04-21 18:04 -19.94528 34.79765 35112 ft 496 kts 21°
2026-04-21 18:04 -19.88203 34.82697 35112 ft 496 kts 21°
2026-04-21 18:05 -19.81898 34.85617 35112 ft 496 kts 21°
2026-04-21 18:05 -19.75528 34.88415 35113 ft 495 kts 18°
2026-04-21 18:06 -19.68974 34.90733 35112 ft 495 kts 15°
2026-04-21 18:06 -19.62464 34.92936 35112 ft 494 kts 15°
2026-04-21 18:07 -19.55921 34.95229 35112 ft 494 kts 16°
2026-04-21 18:07 -19.49394 34.97542 35112 ft 494 kts 16°
2026-04-21 18:08 -19.42868 34.99865 35112 ft 494 kts 16°
2026-04-21 18:08 -19.36360 35.02183 35112 ft 494 kts 16°
2026-04-21 18:09 -19.29856 35.04495 35111 ft 494 kts 16°
2026-04-21 18:09 -19.23309 35.06819 35112 ft 494 kts 16°
2026-04-21 18:10 -19.16803 35.09126 35112 ft 494 kts 16°
2026-04-21 18:10 -19.10310 35.11428 35112 ft 494 kts 16°
2026-04-21 18:11 -19.03765 35.13745 35113 ft 494 kts 16°
2026-04-21 18:11 -18.97225 35.16059 35026 ft 496 kts 16°
2026-04-21 18:12 -18.90686 35.18371 35017 ft 497 kts 16°
2026-04-21 18:12 -18.84123 35.20694 35018 ft 496 kts 16°
2026-04-21 18:13 -18.77557 35.23011 35018 ft 497 kts 16°
2026-04-21 18:13 -18.71046 35.25305 35017 ft 497 kts 16°
2026-04-21 18:14 -18.61199 35.28771 35016 ft 497 kts 16°
2026-04-21 18:15 -18.54626 35.31086 35016 ft 497 kts 16°
2026-04-21 18:15 -18.48052 35.33400 35017 ft 497 kts 16°
2026-04-21 18:16 -18.41512 35.35700 35016 ft 497 kts 16°
2026-04-21 18:16 -18.34970 35.37999 35017 ft 498 kts 17°
2026-04-21 18:17 -18.28397 35.40307 35017 ft 497 kts 17°
2026-04-21 18:17 -18.21841 35.42616 35017 ft 497 kts 17°
2026-04-21 18:18 -18.16382 35.44534 35017 ft 497 kts 17°
2026-04-21 18:18 -18.09813 35.46840 35018 ft 497 kts 17°
2026-04-21 18:19 -18.03245 35.49142 35018 ft 497 kts 17°
2026-04-21 18:19 -17.96712 35.51430 35018 ft 497 kts 17°
2026-04-21 18:20 -17.90154 35.53725 35019 ft 497 kts 17°
2026-04-21 18:20 -17.83592 35.56020 35018 ft 497 kts 17°
2026-04-21 18:21 -17.77020 35.58322 35019 ft 497 kts 17°
2026-04-21 18:21 -17.70463 35.60610 35018 ft 497 kts 17°
2026-04-21 18:22 -17.63913 35.62893 35019 ft 497 kts 17°
2026-04-21 18:22 -17.57336 35.65185 35020 ft 496 kts 17°
2026-04-21 18:23 -17.50823 35.67453 35020 ft 496 kts 17°
2026-04-21 18:23 -17.44273 35.69727 35019 ft 496 kts 17°
2026-04-21 18:24 -17.37719 35.72001 35020 ft 496 kts 17°
2026-04-21 18:24 -17.31162 35.74276 35019 ft 496 kts 17°
2026-04-21 18:25 -17.24601 35.76550 35019 ft 496 kts 17°
2026-04-21 18:25 -17.18034 35.78828 35020 ft 496 kts 17°
2026-04-21 18:26 -17.11507 35.81094 35019 ft 497 kts 17°
2026-04-21 18:26 -17.04956 35.83365 35020 ft 496 kts 17°
2026-04-21 18:27 -16.98364 35.85646 35013 ft 502 kts 17°
2026-04-21 18:27 -16.91711 35.87947 35020 ft 500 kts 17°
2026-04-21 18:28 -16.85165 35.90208 35007 ft 498 kts 18°
2026-04-21 18:28 -16.78527 35.92500 35003 ft 505 kts 18°
2026-04-21 18:29 -16.71833 35.94809 35005 ft 507 kts 18°
2026-04-21 18:29 -16.65142 35.97115 34998 ft 505 kts 19°
2026-04-21 18:30 -16.58480 35.99411 34998 ft 503 kts 19°
2026-04-21 18:30 -16.51826 36.01701 34997 ft 504 kts 19°
2026-04-21 18:31 -16.45208 36.03978 34994 ft 504 kts 19°
2026-04-21 18:31 -16.38557 36.06264 34996 ft 503 kts 18°
2026-04-21 18:32 -16.31911 36.08546 34974 ft 501 kts 18°
2026-04-21 18:32 -16.25276 36.10828 34979 ft 500 kts 18°
2026-04-21 18:33 -16.18698 36.13085 34980 ft 502 kts 18°
2026-04-21 18:33 -16.12081 36.15351 34975 ft 501 kts 18°
2026-04-21 18:34 -16.05435 36.17626 34976 ft 501 kts 18°
2026-04-21 18:34 -15.98814 36.19891 34977 ft 501 kts 18°
2026-04-21 18:35 -15.93309 36.21747 34966 ft 500 kts 18°
2026-04-21 18:35 -15.85570 36.24331 34964 ft 499 kts 18°
2026-04-21 18:36 -15.78951 36.26543 34964 ft 499 kts 18°
2026-04-21 18:36 -15.72344 36.28750 34965 ft 499 kts 18°
2026-04-21 18:37 -15.65767 36.30947 34964 ft 499 kts 18°
2026-04-21 18:37 -15.59166 36.33159 34964 ft 499 kts 18°
2026-04-21 18:38 -15.52552 36.35370 34965 ft 499 kts 18°
2026-04-21 18:38 -15.45927 36.37582 34964 ft 499 kts 18°
2026-04-21 18:39 -15.39329 36.39783 34964 ft 499 kts 18°
2026-04-21 18:39 -15.32685 36.41997 34965 ft 499 kts 18°
2026-04-21 18:40 -15.26121 36.44184 34964 ft 499 kts 18°
2026-04-21 18:40 -15.20609 36.46019 34965 ft 499 kts 18°
2026-04-21 18:41 -15.12880 36.48590 34965 ft 499 kts 18°
2026-04-21 18:41 -15.06277 36.50784 34964 ft 499 kts 18°
2026-04-21 18:42 -14.99682 36.52975 34964 ft 499 kts 18°
2026-04-21 18:42 -14.93066 36.55172 34965 ft 499 kts 18°
2026-04-21 18:43 -14.86461 36.57363 34964 ft 499 kts 18°
2026-04-21 18:43 -14.79822 36.59564 34964 ft 499 kts 18°
2026-04-21 18:44 -14.73207 36.61756 34965 ft 499 kts 18°
2026-04-21 18:44 -14.66585 36.63949 34964 ft 499 kts 18°
2026-04-21 18:45 -14.60006 36.66126 34964 ft 499 kts 18°
2026-04-21 18:45 -14.53345 36.68329 34965 ft 499 kts 18°
2026-04-21 18:46 -14.46751 36.70508 35090 ft 501 kts 18°
2026-04-21 18:46 -14.43453 36.71598 35429 ft 499 kts 18°
2026-04-21 18:46 -14.40148 36.72689 35832 ft 496 kts 18°
2026-04-21 18:46 -14.36857 36.73776 36175 ft 494 kts 18°
2026-04-21 18:47 -14.33575 36.74859 36440 ft 494 kts 18°
2026-04-21 18:47 -14.30327 36.75934 36739 ft 493 kts 18°
2026-04-21 18:47 -14.27034 36.77021 36946 ft 494 kts 18°
2026-04-21 18:48 -14.20502 36.79174 36966 ft 494 kts 18°
2026-04-21 18:48 -14.13943 36.81334 36964 ft 493 kts 18°
2026-04-21 18:49 -14.07458 36.83469 36964 ft 493 kts 18°
2026-04-21 18:49 -14.01982 36.85271 36964 ft 493 kts 18°
2026-04-21 18:50 -13.94399 36.87807 36964 ft 493 kts 18°
2026-04-21 18:50 -13.87881 36.89988 36964 ft 493 kts 18°
2026-04-21 18:51 -13.81351 36.92172 36965 ft 493 kts 18°
2026-04-21 18:51 -13.74795 36.94362 36964 ft 493 kts 18°
2026-04-21 18:52 -13.68270 36.96543 36964 ft 493 kts 18°
2026-04-21 18:52 -13.61786 36.98713 36965 ft 493 kts 18°
2026-04-21 18:53 -13.55277 37.00887 36964 ft 493 kts 18°
2026-04-21 18:53 -13.48696 37.03083 36964 ft 493 kts 18°
2026-04-21 18:54 -13.42223 37.05241 36965 ft 493 kts 18°
2026-04-21 18:54 -13.35688 37.07419 36964 ft 493 kts 18°
2026-04-21 18:55 -13.30223 37.09239 36965 ft 493 kts 18°
2026-04-21 18:55 -13.22634 37.11766 36965 ft 493 kts 18°
2026-04-21 18:56 -13.16097 37.13941 36964 ft 493 kts 18°
2026-04-21 18:56 -13.09568 37.16115 36964 ft 493 kts 18°
2026-04-21 18:57 -13.03067 37.18276 36965 ft 493 kts 18°
2026-04-21 18:57 -12.96536 37.20444 36964 ft 493 kts 18°
2026-04-21 18:58 -12.90038 37.22600 36964 ft 493 kts 18°
2026-04-21 18:58 -12.83511 37.24764 36965 ft 493 kts 18°
2026-04-21 18:59 -12.76962 37.26985 36964 ft 493 kts 19°
2026-04-21 18:59 -12.70497 37.29211 36964 ft 493 kts 19°
2026-04-21 19:00 -12.63983 37.31448 36965 ft 493 kts 19°
2026-04-21 19:00 -12.57478 37.33679 36964 ft 493 kts 19°
2026-04-21 19:01 -12.50959 37.35912 36964 ft 493 kts 19°
2026-04-21 19:01 -12.44484 37.38136 36965 ft 493 kts 19°
2026-04-21 19:02 -12.37989 37.40362 36964 ft 493 kts 19°
2026-04-21 19:02 -12.31455 37.42600 36964 ft 493 kts 19°
2026-04-21 19:03 -12.24938 37.44830 36965 ft 493 kts 19°
2026-04-21 19:03 -12.18467 37.47043 36964 ft 493 kts 19°
2026-04-21 19:04 -12.11970 37.49265 36964 ft 493 kts 19°
2026-04-21 19:04 -12.05456 37.51490 36965 ft 493 kts 19°
2026-04-21 19:05 -12.00026 37.53344 36964 ft 493 kts 19°
2026-04-21 19:05 -11.93512 37.55569 36965 ft 493 kts 19°
2026-04-21 19:06 -11.86998 37.57794 36965 ft 493 kts 19°
2026-04-21 19:06 -11.80477 37.60017 36964 ft 493 kts 19°
2026-04-21 19:07 -11.73976 37.62232 36964 ft 493 kts 19°
2026-04-21 19:07 -11.67464 37.64449 36965 ft 493 kts 19°
2026-04-21 19:08 -11.60939 37.66661 36964 ft 493 kts 18°
2026-04-21 19:08 -11.54438 37.68780 36964 ft 493 kts 18°
2026-04-21 19:09 -11.47902 37.70913 36965 ft 493 kts 18°
2026-04-21 19:09 -11.41374 37.73046 36964 ft 493 kts 18°
2026-04-21 19:10 -11.34843 37.75182 36964 ft 493 kts 18°
2026-04-21 19:10 -11.28295 37.77326 36965 ft 493 kts 18°
2026-04-21 19:11 -11.21762 37.79466 36964 ft 493 kts 18°
2026-04-21 19:11 -11.15249 37.81597 36964 ft 493 kts 18°
2026-04-21 19:12 -11.08729 37.83728 36965 ft 493 kts 18°
2026-04-21 19:12 -11.02212 37.85858 36965 ft 493 kts 18°
2026-04-21 19:13 -10.95675 37.87992 36964 ft 493 kts 18°
2026-04-21 19:13 -10.89133 37.90128 36964 ft 493 kts 18°
2026-04-21 19:14 -10.82586 37.92264 36965 ft 493 kts 18°
2026-04-21 19:14 -10.76080 37.94385 36964 ft 493 kts 18°
2026-04-21 19:15 -10.69528 37.96521 36964 ft 493 kts 18°
2026-04-21 19:15 -10.63006 37.98645 36965 ft 493 kts 18°
2026-04-21 19:16 -10.56416 38.00791 36964 ft 493 kts 18°
2026-04-21 19:16 -10.49920 38.02906 36964 ft 493 kts 18°
2026-04-21 19:17 -10.40102 38.06100 36964 ft 493 kts 18°
2026-04-21 19:17 -10.33557 38.08228 36965 ft 493 kts 18°
2026-04-21 19:18 -10.27064 38.10338 36965 ft 493 kts 18°
2026-04-21 19:18 -10.20474 38.12479 36964 ft 493 kts 18°
2026-04-21 19:19 -10.13968 38.14591 36964 ft 493 kts 18°
2026-04-21 19:19 -10.07435 38.16712 36965 ft 493 kts 18°
2026-04-21 19:20 -10.00899 38.18832 36964 ft 493 kts 18°
2026-04-21 19:20 -9.94328 38.20964 36964 ft 493 kts 18°
2026-04-21 19:21 -9.87787 38.23084 36965 ft 493 kts 18°
2026-04-21 19:21 -9.81286 38.25190 36964 ft 493 kts 18°
2026-04-21 19:22 -9.74744 38.27309 36964 ft 493 kts 18°
2026-04-21 19:22 -9.68194 38.29430 36965 ft 493 kts 18°
2026-04-21 19:23 -9.61659 38.31545 36965 ft 493 kts 18°
2026-04-21 19:23 -9.55101 38.33667 36964 ft 493 kts 18°
2026-04-21 19:24 -9.48556 38.35783 36964 ft 493 kts 18°
2026-04-21 19:24 -9.42007 38.37900 36965 ft 493 kts 18°
2026-04-21 19:25 -9.35464 38.40014 36964 ft 493 kts 18°
2026-04-21 19:25 -9.28975 38.42110 36964 ft 493 kts 18°
2026-04-21 19:26 -9.22434 38.44222 36965 ft 493 kts 18°
2026-04-21 19:26 -9.15860 38.46344 36964 ft 493 kts 18°
2026-04-21 19:27 -9.09325 38.48452 36964 ft 493 kts 18°
2026-04-21 19:27 -9.02779 38.50563 36965 ft 493 kts 18°
2026-04-21 19:28 -8.96225 38.52676 36965 ft 493 kts 18°
2026-04-21 19:28 -8.89684 38.54784 36964 ft 494 kts 18°
2026-04-21 19:29 -8.83183 38.56878 36964 ft 494 kts 18°
2026-04-21 19:29 -8.76616 38.58994 36965 ft 494 kts 18°
2026-04-21 19:30 -8.70074 38.61101 36964 ft 494 kts 18°
2026-04-21 19:30 -8.63554 38.63198 36964 ft 494 kts 18°
2026-04-21 19:31 -8.57015 38.65301 36965 ft 494 kts 18°
2026-04-21 19:31 -8.50465 38.67406 36964 ft 494 kts 18°
2026-04-21 19:32 -8.43911 38.69516 36964 ft 494 kts 18°
2026-04-21 19:32 -8.37364 38.71623 36964 ft 494 kts 18°
2026-04-21 19:33 -8.30816 38.73730 36965 ft 494 kts 18°
2026-04-21 19:33 -8.24316 38.75821 36964 ft 494 kts 18°
2026-04-21 19:34 -8.17769 38.77927 36964 ft 494 kts 18°
2026-04-21 19:34 -8.11225 38.80034 36965 ft 494 kts 18°
2026-04-21 19:35 -8.01398 38.83196 36965 ft 494 kts 18°
2026-04-21 19:36 -7.94854 38.85300 36965 ft 494 kts 18°
2026-04-21 19:36 -7.88347 38.87391 36964 ft 494 kts 18°
2026-04-21 19:37 -7.81785 38.89499 36939 ft 494 kts 19°
2026-04-21 19:37 -7.75233 38.91603 36935 ft 496 kts 19°
2026-04-21 19:38 -7.68628 38.93724 36935 ft 497 kts 19°
2026-04-21 19:38 -7.63174 38.95474 36934 ft 496 kts 19°
2026-04-21 19:39 -7.55494 38.97938 36935 ft 496 kts 19°
2026-04-21 19:39 -7.48923 39.00045 36935 ft 496 kts 19°
2026-04-21 19:40 -7.42336 39.02157 36935 ft 496 kts 19°
2026-04-21 19:40 -7.35757 39.04266 36934 ft 496 kts 19°
2026-04-21 19:41 -7.29180 39.06373 36935 ft 494 kts 19°
2026-04-21 19:41 -7.22619 39.08475 36935 ft 495 kts 19°
2026-04-21 19:42 -7.16068 39.10575 36935 ft 495 kts 19°
2026-04-21 19:42 -7.09551 39.12661 36935 ft 494 kts 19°
2026-04-21 19:43 -7.02988 39.14761 36935 ft 494 kts 19°
2026-04-21 19:43 -6.96414 39.16864 36935 ft 494 kts 19°
2026-04-21 19:44 -6.89930 39.19066 36931 ft 493 kts 25°
2026-04-21 19:44 -6.83960 39.22440 36936 ft 491 kts 34°
2026-04-21 19:45 -6.78321 39.26348 36934 ft 491 kts 36°
2026-04-21 19:45 -6.72738 39.30223 36935 ft 490 kts 36°
2026-04-21 19:46 -6.67098 39.34079 36935 ft 490 kts 35°
2026-04-21 19:46 -6.61444 39.37933 36935 ft 490 kts 35°
2026-04-21 19:47 -6.55806 39.41777 36935 ft 490 kts 35°
2026-04-21 19:47 -6.50148 39.45634 36935 ft 490 kts 35°
2026-04-21 19:48 -6.44494 39.49484 36935 ft 490 kts 35°
2026-04-21 19:48 -6.38880 39.53303 36934 ft 490 kts 35°
2026-04-21 19:49 -6.33202 39.57166 36935 ft 490 kts 35°
2026-04-21 19:49 -6.27595 39.60977 36935 ft 490 kts 35°
2026-04-21 19:50 -6.22883 39.64168 36935 ft 490 kts 35°
2026-04-21 19:50 -6.16242 39.68606 36935 ft 490 kts 35°
2026-04-21 19:51 -6.10565 39.72406 36935 ft 490 kts 35°
2026-04-21 19:51 -6.04881 39.76212 36935 ft 490 kts 35°
2026-04-21 19:52 -5.99193 39.80021 36934 ft 491 kts 35°
2026-04-21 19:52 -5.93556 39.83799 36935 ft 491 kts 35°
2026-04-21 19:53 -5.87878 39.87604 36935 ft 491 kts 35°
2026-04-21 19:53 -5.83112 39.90796 36935 ft 491 kts 35°
2026-04-21 19:54 -5.77458 39.94580 36935 ft 491 kts 35°
2026-04-21 19:54 -5.70812 39.99027 36935 ft 492 kts 35°
2026-04-21 19:55 -5.66042 40.02219 36935 ft 494 kts 35°
2026-04-21 19:55 -5.60345 40.06029 36935 ft 494 kts 34°
2026-04-21 19:56 -5.54629 40.09852 36935 ft 495 kts 34°
2026-04-21 19:56 -5.48891 40.13688 36935 ft 495 kts 34°
2026-04-21 19:57 -5.43162 40.17517 36935 ft 495 kts 34°
2026-04-21 19:57 -5.37427 40.21351 36935 ft 495 kts 34°
2026-04-21 19:58 -5.31695 40.25182 36935 ft 497 kts 34°
2026-04-21 19:58 -5.25932 40.29031 36934 ft 497 kts 33°
2026-04-21 19:59 -5.20164 40.32882 36935 ft 498 kts 34°
2026-04-21 19:59 -5.14400 40.36729 36935 ft 498 kts 34°
2026-04-21 20:00 -5.08746 40.40685 36934 ft 498 kts 38°
2026-04-21 20:00 -5.03356 40.45055 36935 ft 498 kts 39°
2026-04-21 20:01 -4.97944 40.49407 36935 ft 499 kts 38°
2026-04-21 20:01 -4.92504 40.53698 36935 ft 499 kts 38°
2026-04-21 20:02 -4.87064 40.57986 36935 ft 499 kts 38°
2026-04-21 20:02 -4.81579 40.62258 36935 ft 499 kts 36°
2026-04-21 20:03 -4.75746 40.66031 36935 ft 499 kts 31°
2026-04-21 20:03 -4.69739 40.69535 36934 ft 499 kts 30°
2026-04-21 20:04 -4.63764 40.73106 36935 ft 499 kts 31°
2026-04-21 20:04 -4.57864 40.76691 36935 ft 499 kts 31°
2026-04-21 20:05 -4.51923 40.80313 36935 ft 499 kts 31°
2026-04-21 20:05 -4.45997 40.83930 36935 ft 499 kts 31°
2026-04-21 20:06 -4.40063 40.87550 36935 ft 499 kts 31°
2026-04-21 20:06 -4.34152 40.91155 36935 ft 499 kts 31°
2026-04-21 20:07 -4.28243 40.94758 36934 ft 499 kts 31°
2026-04-21 20:07 -4.22309 40.98378 36935 ft 500 kts 31°
2026-04-21 20:08 -4.16368 41.02000 36935 ft 501 kts 31°
2026-04-21 20:08 -4.10405 41.05633 36935 ft 501 kts 31°
2026-04-21 20:09 -4.04442 41.09266 36935 ft 500 kts 31°
2026-04-21 20:09 -3.98495 41.12915 36934 ft 501 kts 33°
2026-04-21 20:10 -3.92842 41.16929 36935 ft 501 kts 37°
2026-04-21 20:10 -3.87309 41.21164 36935 ft 502 kts 37°
2026-04-21 20:11 -3.81714 41.25374 36935 ft 502 kts 36°
2026-04-21 20:11 -3.76114 41.29537 36935 ft 501 kts 36°
2026-04-21 20:12 -3.70501 41.33696 36942 ft 501 kts 36°
2026-04-21 20:12 -3.64887 41.37853 36980 ft 501 kts 36°
2026-04-21 20:13 -3.59287 41.41997 36981 ft 501 kts 36°
2026-04-21 20:13 -3.53716 41.46116 36981 ft 501 kts 36°
2026-04-21 20:14 -3.48098 41.50270 36983 ft 501 kts 36°
2026-04-21 20:14 -3.42485 41.54418 36982 ft 501 kts 36°
2026-04-21 20:15 -3.36872 41.58567 36982 ft 501 kts 36°
2026-04-21 20:15 -3.31305 41.62681 36985 ft 501 kts 36°
2026-04-21 20:16 -3.25688 41.66831 36985 ft 501 kts 36°
2026-04-21 20:16 -3.20085 41.70970 36984 ft 501 kts 36°
2026-04-21 20:17 -3.14474 41.75115 36985 ft 501 kts 36°
2026-04-21 20:17 -3.08879 41.79247 36985 ft 501 kts 36°
2026-04-21 20:18 -3.04208 41.82696 36985 ft 501 kts 36°
2026-04-21 20:18 -2.97688 41.87511 36987 ft 500 kts 36°
2026-04-21 20:19 -2.92088 41.91645 36988 ft 500 kts 36°
2026-04-21 20:19 -2.86485 41.95781 36991 ft 500 kts 36°
2026-04-21 20:20 -2.80876 41.99921 36992 ft 500 kts 36°
2026-04-21 20:20 -2.75273 42.04056 36994 ft 500 kts 36°
2026-04-21 20:21 -2.69661 42.08197 36994 ft 500 kts 36°
2026-04-21 20:21 -2.64063 42.12328 36994 ft 500 kts 36°
2026-04-21 20:22 -2.58506 42.16427 36993 ft 500 kts 36°
2026-04-21 20:22 -2.50092 42.22634 36994 ft 500 kts 36°
2026-04-21 20:23 -2.44484 42.26772 36994 ft 500 kts 36°
2026-04-21 20:23 -2.38884 42.30902 36994 ft 500 kts 36°
2026-04-21 20:24 -2.33302 42.35018 36994 ft 500 kts 36°
2026-04-21 20:24 -2.27692 42.39155 36994 ft 500 kts 36°
2026-04-21 20:25 -2.22090 42.43284 36994 ft 500 kts 36°
2026-04-21 20:25 -2.16400 42.47299 36994 ft 500 kts 34°
2026-04-21 20:26 -2.10663 42.51220 36994 ft 500 kts 34°
2026-04-21 20:26 -2.04960 42.55169 36994 ft 500 kts 34°
2026-04-21 20:27 -1.99240 42.59133 36972 ft 500 kts 34°
2026-04-21 20:27 -1.93476 42.63036 36967 ft 500 kts 34°
2026-04-21 20:28 -1.87731 42.66916 36965 ft 500 kts 34°
2026-04-21 20:28 -1.81965 42.70817 36964 ft 500 kts 34°
2026-04-21 20:29 -1.76200 42.74721 36963 ft 500 kts 34°
2026-04-21 20:29 -1.70432 42.78628 36959 ft 500 kts 34°
2026-04-21 20:30 -1.64706 42.82508 36958 ft 500 kts 34°
2026-04-21 20:30 -1.58941 42.86414 36957 ft 500 kts 34°
2026-04-21 20:31 -1.53179 42.90316 36955 ft 500 kts 34°
2026-04-21 20:31 -1.47407 42.94225 36954 ft 500 kts 34°
2026-04-21 20:32 -1.41653 42.98122 36954 ft 500 kts 34°
2026-04-21 20:32 -1.35922 43.02003 36950 ft 500 kts 34°
2026-04-21 20:33 -1.30161 43.05904 36949 ft 500 kts 34°
2026-04-21 20:33 -1.24402 43.09804 36948 ft 500 kts 34°
2026-04-21 20:34 -1.18647 43.13700 36948 ft 500 kts 34°
2026-04-21 20:34 -1.12885 43.17601 36948 ft 500 kts 34°
2026-04-21 20:35 -1.07113 43.21509 36948 ft 500 kts 34°
2026-04-21 20:35 -1.01383 43.25387 36945 ft 500 kts 34°
2026-04-21 20:36 -0.95621 43.29288 36944 ft 500 kts 34°
2026-04-21 20:36 -0.89856 43.33190 36945 ft 500 kts 34°
2026-04-21 20:37 -0.84093 43.37092 36944 ft 500 kts 34°
2026-04-21 20:37 -0.78332 43.40991 36945 ft 500 kts 34°
2026-04-21 20:38 -0.72602 43.44869 36945 ft 500 kts 34°
2026-04-21 20:38 -0.66839 43.48770 36944 ft 500 kts 34°
2026-04-21 20:39 -0.61081 43.52666 36944 ft 500 kts 34°
2026-04-21 20:39 -0.55315 43.56569 36944 ft 500 kts 34°
2026-04-21 20:40 -0.49551 43.60470 36944 ft 500 kts 34°
2026-04-21 20:40 -0.43827 43.64343 36945 ft 500 kts 34°
2026-04-21 20:41 -0.38054 43.68251 36946 ft 500 kts 34°
2026-04-21 20:41 -0.33231 43.71514 36945 ft 500 kts 34°
2026-04-21 20:42 -0.26517 43.76058 36944 ft 500 kts 34°
2026-04-21 20:42 -0.21732 43.79296 36945 ft 500 kts 34°
2026-04-21 20:43 -0.15962 43.83201 36944 ft 500 kts 34°
2026-04-21 20:43 -0.10212 43.87092 36947 ft 500 kts 34°
2026-04-21 20:44 -0.03511 43.91627 36947 ft 500 kts 34°
2026-04-21 20:44 0.01315 43.94893 36946 ft 500 kts 34°
2026-04-21 20:45 0.07048 43.98773 36947 ft 500 kts 34°
2026-04-21 20:45 0.12817 44.02677 36948 ft 500 kts 34°
2026-04-21 20:46 0.18576 44.06574 36947 ft 500 kts 34°
2026-04-21 20:46 0.24346 44.10480 36948 ft 500 kts 34°
2026-04-21 20:47 0.30116 44.14385 36949 ft 500 kts 34°
2026-04-21 20:47 0.35888 44.18283 36949 ft 500 kts 34°
2026-04-21 20:48 0.41627 44.22141 36949 ft 500 kts 34°
2026-04-21 20:48 0.47401 44.26026 36949 ft 500 kts 34°
2026-04-21 20:49 0.53175 44.29913 36949 ft 500 kts 34°
2026-04-21 20:49 0.58954 44.33804 36951 ft 500 kts 34°
2026-04-21 20:50 0.64719 44.37685 36951 ft 500 kts 34°
2026-04-21 20:50 0.70490 44.41571 36951 ft 500 kts 34°
2026-04-21 20:51 0.76240 44.45442 36951 ft 500 kts 34°
2026-04-21 20:51 0.82024 44.49338 36952 ft 500 kts 34°
2026-04-21 20:52 0.87796 44.53224 36952 ft 500 kts 34°
2026-04-21 20:52 0.93562 44.57107 36952 ft 500 kts 34°
2026-04-21 20:53 0.99345 44.61002 36952 ft 500 kts 34°
2026-04-21 20:53 1.05074 44.64860 36953 ft 500 kts 34°
2026-04-21 20:54 1.10852 44.68751 36953 ft 500 kts 34°
2026-04-21 20:54 1.16638 44.72649 36953 ft 500 kts 34°
2026-04-21 20:55 1.22420 44.76543 36953 ft 500 kts 34°
2026-04-21 20:55 1.28151 44.80404 36954 ft 500 kts 34°
2026-04-21 20:56 1.33927 44.84295 36953 ft 500 kts 33°
2026-04-21 20:56 1.39715 44.88194 36951 ft 499 kts 33°
2026-04-21 20:57 1.45442 44.92053 36955 ft 500 kts 34°
2026-04-21 20:57 1.51258 44.95971 36952 ft 501 kts 33°
2026-04-21 20:58 1.56993 44.99836 36948 ft 501 kts 33°
2026-04-21 20:58 1.62768 45.03728 36941 ft 501 kts 33°
2026-04-21 20:59 1.68559 45.07630 36936 ft 501 kts 33°
2026-04-21 20:59 1.74334 45.11523 36935 ft 500 kts 33°
2026-04-21 21:00 1.80091 45.15403 36938 ft 501 kts 33°
2026-04-21 21:00 1.85881 45.19306 36936 ft 503 kts 33°
2026-04-21 21:01 1.91674 45.23212 36935 ft 502 kts 33°
2026-04-21 21:01 1.97457 45.27112 36935 ft 501 kts 33°
2026-04-21 21:02 2.03267 45.30972 36935 ft 501 kts 31°
2026-04-21 21:02 2.09253 45.34544 36934 ft 501 kts 29°
2026-04-21 21:03 2.15272 45.38062 36935 ft 501 kts 30°
2026-04-21 21:03 2.21296 45.41636 36935 ft 501 kts 30°
2026-04-21 21:04 2.27254 45.45192 36935 ft 502 kts 30°
2026-04-21 21:04 2.33239 45.48769 36934 ft 502 kts 30°
2026-04-21 21:05 2.39242 45.52360 36935 ft 502 kts 30°
2026-04-21 21:05 2.45231 45.55945 36935 ft 502 kts 30°
2026-04-21 21:06 2.51225 45.59534 36935 ft 502 kts 30°
2026-04-21 21:06 2.57189 45.63105 36935 ft 502 kts 30°
2026-04-21 21:07 2.63177 45.66690 36935 ft 502 kts 30°
2026-04-21 21:07 2.69158 45.70273 36935 ft 500 kts 30°
2026-04-21 21:08 2.75154 45.73865 36935 ft 501 kts 30°
2026-04-21 21:08 2.81149 45.77456 36935 ft 502 kts 30°
2026-04-21 21:09 2.87081 45.81010 36935 ft 498 kts 30°
2026-04-21 21:09 2.93045 45.84584 36934 ft 494 kts 30°
2026-04-21 21:10 2.98903 45.88095 36935 ft 493 kts 30°
2026-04-21 21:10 3.04783 45.91619 36935 ft 494 kts 30°
2026-04-21 21:11 3.10679 45.95154 36935 ft 494 kts 30°
2026-04-21 21:11 3.16550 45.98673 36935 ft 494 kts 30°
2026-04-21 21:12 3.22445 46.02208 36948 ft 493 kts 30°
2026-04-21 21:12 3.25382 46.03970 37253 ft 491 kts 30°
2026-04-21 21:12 3.28342 46.05745 37318 ft 494 kts 30°
2026-04-21 21:13 3.34252 46.09289 37348 ft 496 kts 30°
2026-04-21 21:13 3.40137 46.12820 37348 ft 495 kts 30°
2026-04-21 21:14 3.46032 46.16356 37348 ft 494 kts 30°
2026-04-21 21:14 3.51935 46.19898 37348 ft 494 kts 30°
2026-04-21 21:15 3.57846 46.23446 37348 ft 494 kts 30°
2026-04-21 21:15 3.63747 46.26988 37348 ft 494 kts 30°
2026-04-21 21:16 3.69607 46.30505 37348 ft 494 kts 30°
2026-04-21 21:16 3.75518 46.34054 37348 ft 494 kts 30°
2026-04-21 21:17 3.81395 46.37583 37348 ft 494 kts 30°
2026-04-21 21:17 3.87294 46.41126 37348 ft 494 kts 30°
2026-04-21 21:18 3.93182 46.44664 37349 ft 494 kts 30°
2026-04-21 21:18 3.99087 46.48211 37348 ft 494 kts 30°
2026-04-21 21:19 4.04984 46.51754 37348 ft 494 kts 30°
2026-04-21 21:19 4.10893 46.55306 37348 ft 494 kts 30°
2026-04-21 21:20 4.16789 46.58850 37348 ft 494 kts 30°
2026-04-21 21:20 4.22660 46.62380 37349 ft 494 kts 30°
2026-04-21 21:21 4.28553 46.65924 37348 ft 494 kts 30°
2026-04-21 21:21 4.34448 46.69469 37348 ft 494 kts 30°
2026-04-21 21:22 4.40343 46.73015 37348 ft 494 kts 30°
2026-04-21 21:22 4.46211 46.76546 37348 ft 494 kts 30°
2026-04-21 21:23 4.52107 46.80094 37349 ft 494 kts 30°
2026-04-21 21:23 4.57991 46.83636 37348 ft 494 kts 30°
2026-04-21 21:24 4.63891 46.87187 37348 ft 494 kts 30°
2026-04-21 21:24 4.69790 46.90739 37348 ft 494 kts 30°
2026-04-21 21:25 4.75697 46.94297 37348 ft 494 kts 30°
2026-04-21 21:25 4.81558 46.97827 37349 ft 494 kts 30°
2026-04-21 21:26 4.87453 47.01379 37348 ft 494 kts 30°
2026-04-21 21:26 4.93349 47.04932 37348 ft 494 kts 30°
2026-04-21 21:27 4.99241 47.08484 37348 ft 494 kts 30°
2026-04-21 21:27 5.05125 47.12031 37349 ft 494 kts 30°
2026-04-21 21:28 5.11032 47.15593 37349 ft 494 kts 30°
2026-04-21 21:29 5.19847 47.20910 37349 ft 494 kts 30°
2026-04-21 21:29 5.25752 47.24473 37348 ft 494 kts 30°
2026-04-21 21:30 5.31645 47.28029 37348 ft 494 kts 30°
2026-04-21 21:30 5.37528 47.31580 37348 ft 494 kts 30°
2026-04-21 21:31 5.42439 47.34543 37348 ft 494 kts 30°
2026-04-21 21:31 5.49297 47.38685 37349 ft 494 kts 30°
2026-04-21 21:32 5.54235 47.41669 37348 ft 494 kts 30°
2026-04-21 21:32 5.60087 47.45206 37348 ft 494 kts 30°
2026-04-21 21:33 5.65980 47.48768 37349 ft 494 kts 30°
2026-04-21 21:33 5.71856 47.52363 37348 ft 494 kts 30°
2026-04-21 21:34 5.77722 47.55958 37348 ft 494 kts 30°
2026-04-21 21:34 5.83606 47.59566 37348 ft 494 kts 30°
2026-04-21 21:35 5.89448 47.63148 37348 ft 494 kts 30°
2026-04-21 21:35 5.95318 47.66748 37349 ft 494 kts 30°
2026-04-21 21:36 6.01197 47.70349 37348 ft 494 kts 30°
2026-04-21 21:36 6.07068 47.73949 37348 ft 494 kts 30°
2026-04-21 21:37 6.12937 47.77550 37348 ft 494 kts 30°
2026-04-21 21:37 6.18773 47.81131 37348 ft 494 kts 30°
2026-04-21 21:38 6.24644 47.84734 37349 ft 494 kts 30°
2026-04-21 21:38 6.30509 47.88336 37348 ft 494 kts 30°
2026-04-21 21:39 6.36379 47.91941 37348 ft 494 kts 30°
2026-04-21 21:39 6.42255 47.95551 37348 ft 494 kts 30°
2026-04-21 21:40 6.48125 47.99158 37348 ft 494 kts 30°
2026-04-21 21:40 6.53990 48.02764 37349 ft 494 kts 30°
2026-04-21 21:41 6.59827 48.06352 37348 ft 494 kts 30°
2026-04-21 21:41 6.65690 48.09958 37348 ft 494 kts 30°
2026-04-21 21:42 6.71564 48.13572 37348 ft 494 kts 30°
2026-04-21 21:42 6.77431 48.17183 37348 ft 494 kts 30°
2026-04-21 21:43 6.83311 48.20802 37349 ft 494 kts 30°
2026-04-21 21:43 6.89170 48.24410 37348 ft 494 kts 30°
2026-04-21 21:44 6.95044 48.28028 37348 ft 494 kts 30°
2026-04-21 21:44 7.00905 48.31639 37348 ft 494 kts 30°
2026-04-21 21:45 7.06731 48.35230 37349 ft 494 kts 30°
2026-04-21 21:45 7.12628 48.38861 37349 ft 494 kts 30°
2026-04-21 21:46 7.18488 48.42477 37348 ft 494 kts 30°
2026-04-21 21:46 7.24343 48.46090 37348 ft 494 kts 30°
2026-04-21 21:47 7.30175 48.49690 37348 ft 494 kts 30°
2026-04-21 21:47 7.36043 48.53310 37348 ft 494 kts 30°
2026-04-21 21:48 7.41925 48.56864 37349 ft 494 kts 30°
2026-04-21 21:48 7.47832 48.60436 37348 ft 494 kts 30°
2026-04-21 21:49 7.53730 48.64010 37348 ft 494 kts 30°
2026-04-21 21:49 7.59626 48.67585 37348 ft 494 kts 30°
2026-04-21 21:50 7.65490 48.71140 37348 ft 494 kts 30°
2026-04-21 21:50 7.71376 48.74706 37349 ft 494 kts 30°
2026-04-21 21:51 7.77266 48.78279 37349 ft 494 kts 30°
2026-04-21 21:51 7.83158 48.81855 37348 ft 494 kts 30°
2026-04-21 21:52 7.89019 48.85414 37348 ft 494 kts 30°
2026-04-21 21:52 7.94954 48.89018 37348 ft 494 kts 30°
2026-04-21 21:53 8.00805 48.92574 37348 ft 494 kts 30°
2026-04-21 21:53 8.06694 48.96153 37349 ft 494 kts 30°
2026-04-21 21:54 8.12594 48.99741 37348 ft 494 kts 30°
2026-04-21 21:54 8.18478 49.03319 37348 ft 494 kts 30°
2026-04-21 21:55 8.24369 49.06904 37348 ft 494 kts 30°
2026-04-21 21:55 8.30244 49.10480 37348 ft 494 kts 30°
2026-04-21 21:56 8.36118 49.14055 37349 ft 494 kts 30°
2026-04-21 21:56 8.42012 49.17643 37348 ft 494 kts 30°
2026-04-21 21:57 8.47894 49.21229 37348 ft 494 kts 30°
2026-04-21 21:57 8.53790 49.24824 37348 ft 494 kts 30°
2026-04-21 21:58 8.59687 49.28421 37348 ft 494 kts 30°
2026-04-21 21:58 8.65572 49.32012 37348 ft 494 kts 30°
2026-04-21 21:59 8.71425 49.35581 37349 ft 494 kts 30°
2026-04-21 21:59 8.77321 49.39180 37348 ft 494 kts 30°
2026-04-21 22:00 8.83206 49.42775 37348 ft 494 kts 30°
2026-04-21 22:00 8.89098 49.46376 37348 ft 494 kts 30°
2026-04-21 22:01 8.94983 49.49968 37348 ft 494 kts 30°
2026-04-21 22:01 9.00866 49.53557 37348 ft 494 kts 30°
2026-04-21 22:02 9.06744 49.57153 37349 ft 494 kts 30°
2026-04-21 22:02 9.12598 49.60736 37348 ft 494 kts 30°
2026-04-21 22:03 9.18476 49.64335 37348 ft 494 kts 30°
2026-04-21 22:03 9.24370 49.67946 37348 ft 494 kts 30°
2026-04-21 22:04 9.30259 49.71557 37348 ft 494 kts 30°
2026-04-21 22:04 9.36113 49.75151 37349 ft 494 kts 30°
2026-04-21 22:05 9.41992 49.78764 37348 ft 494 kts 30°
2026-04-21 22:05 9.47863 49.82372 37348 ft 494 kts 30°
2026-04-21 22:06 9.53722 49.85972 37348 ft 494 kts 30°
2026-04-21 22:06 9.59592 49.89576 37348 ft 494 kts 30°
2026-04-21 22:07 9.65473 49.93191 37349 ft 494 kts 30°
2026-04-21 22:07 9.71357 49.96811 37349 ft 494 kts 30°
2026-04-21 22:08 9.77241 50.00432 37348 ft 494 kts 30°
2026-04-21 22:08 9.83100 50.04041 37348 ft 494 kts 30°
2026-04-21 22:09 9.88965 50.07654 37348 ft 494 kts 30°
2026-04-21 22:09 9.94863 50.11289 37348 ft 494 kts 30°
2026-04-21 22:10 10.00705 50.14891 37349 ft 494 kts 30°
2026-04-21 22:10 10.06576 50.18513 37348 ft 494 kts 30°
2026-04-21 22:11 10.12453 50.22139 37348 ft 494 kts 30°
2026-04-21 22:11 10.18344 50.25777 37348 ft 494 kts 30°
2026-04-21 22:12 10.24220 50.29406 37348 ft 494 kts 30°
2026-04-21 22:12 10.30091 50.33034 37328 ft 494 kts 29°
2026-04-21 22:12 10.33002 50.34833 37058 ft 492 kts 29°
2026-04-21 22:13 10.35906 50.36629 37001 ft 488 kts 29°
2026-04-21 22:13 10.41709 50.40218 36972 ft 487 kts 29°
2026-04-21 22:14 10.47510 50.43807 36973 ft 489 kts 29°
2026-04-21 22:14 10.53326 50.47408 36973 ft 489 kts 29°
2026-04-21 22:15 10.59129 50.51001 36972 ft 489 kts 29°
2026-04-21 22:15 10.64961 50.54615 36972 ft 489 kts 29°
2026-04-21 22:16 10.70736 50.58195 36972 ft 489 kts 29°
2026-04-21 22:16 10.76539 50.61793 36971 ft 489 kts 29°
2026-04-21 22:17 10.82366 50.65409 36974 ft 489 kts 29°
2026-04-21 22:17 10.88170 50.69012 36975 ft 489 kts 29°
2026-04-21 22:18 10.93965 50.72610 36974 ft 489 kts 29°
2026-04-21 22:18 10.99746 50.76202 36974 ft 489 kts 29°
2026-04-21 22:19 11.05542 50.79805 36974 ft 489 kts 29°
2026-04-21 22:19 11.11352 50.83418 36961 ft 487 kts 30°
2026-04-21 22:20 11.17123 50.87004 36969 ft 486 kts 29°
2026-04-21 22:20 11.22913 50.90609 36976 ft 488 kts 30°
2026-04-21 22:21 11.27739 50.93616 36948 ft 487 kts 30°
2026-04-21 22:21 11.34429 50.97788 36919 ft 483 kts 30°
2026-04-21 22:22 11.39237 51.00784 36906 ft 481 kts 30°
2026-04-21 22:22 11.44912 51.04317 36905 ft 481 kts 30°
2026-04-21 22:23 11.50634 51.07878 36905 ft 481 kts 30°
2026-04-21 22:23 11.56357 51.11443 36905 ft 482 kts 30°
2026-04-21 22:24 11.62051 51.14992 36905 ft 481 kts 30°
2026-04-21 22:24 11.67760 51.18553 36906 ft 481 kts 30°
2026-04-21 22:25 11.73487 51.22118 36906 ft 481 kts 30°
2026-04-21 22:25 11.79207 51.25679 36905 ft 481 kts 30°
2026-04-21 22:26 11.84939 51.29257 36905 ft 481 kts 30°
2026-04-21 22:26 11.90618 51.32806 36905 ft 481 kts 30°
2026-04-21 22:27 11.96334 51.36380 36905 ft 481 kts 30°
2026-04-21 22:27 12.02061 51.39961 36906 ft 481 kts 30°
2026-04-21 22:28 12.07785 51.43538 36906 ft 481 kts 30°
2026-04-21 22:28 12.13472 51.47093 36905 ft 481 kts 30°
2026-04-21 22:29 12.19191 51.50671 36905 ft 481 kts 30°
2026-04-21 22:29 12.24900 51.54246 36905 ft 481 kts 30°
2026-04-21 22:30 12.30595 51.57814 36905 ft 481 kts 30°
2026-04-21 22:30 12.36306 51.61384 36906 ft 481 kts 30°
2026-04-21 22:31 12.42017 51.64958 36906 ft 481 kts 30°
2026-04-21 22:31 12.47729 51.68538 36905 ft 481 kts 30°
2026-04-21 22:32 12.53446 51.72125 36905 ft 481 kts 30°
2026-04-21 22:32 12.59164 51.75713 36905 ft 481 kts 30°
2026-04-21 22:33 12.64845 51.79280 36905 ft 481 kts 30°
2026-04-21 22:33 12.70560 51.82871 36905 ft 481 kts 30°
2026-04-21 22:34 12.76268 51.86459 36906 ft 481 kts 30°
2026-04-21 22:34 12.81973 51.90047 36905 ft 481 kts 30°
2026-04-21 22:35 12.87691 51.93646 36905 ft 481 kts 30°
2026-04-21 22:35 12.93401 51.97241 36905 ft 481 kts 30°
2026-04-21 22:36 13.01935 52.02618 36905 ft 481 kts 30°
2026-04-21 22:36 13.07643 52.06217 36905 ft 481 kts 30°
2026-04-21 22:37 13.13358 52.09819 37174 ft 484 kts 30°
2026-04-21 22:37 13.16225 52.11625 37587 ft 481 kts 30°
2026-04-21 22:37 13.19074 52.13424 38001 ft 479 kts 30°
2026-04-21 22:38 13.21904 52.15212 38337 ft 478 kts 30°
2026-04-21 22:38 13.24740 52.17005 38605 ft 478 kts 30°
2026-04-21 22:38 13.27568 52.18793 38876 ft 478 kts 30°
2026-04-21 22:38 13.30403 52.20587 38907 ft 479 kts 30°
2026-04-21 22:39 13.36078 52.24176 38905 ft 478 kts 30°
2026-04-21 22:39 13.41706 52.27743 38905 ft 477 kts 30°
2026-04-21 22:40 13.47359 52.31333 38905 ft 477 kts 30°
2026-04-21 22:40 13.52996 52.34917 38905 ft 477 kts 30°
2026-04-21 22:41 13.58632 52.38504 38906 ft 478 kts 30°
2026-04-21 22:41 13.64323 52.42128 38905 ft 478 kts 30°
2026-04-21 22:42 13.69977 52.45725 38905 ft 478 kts 30°
2026-04-21 22:42 13.75595 52.49296 38905 ft 478 kts 30°
2026-04-21 22:43 13.81241 52.52892 38905 ft 478 kts 30°
2026-04-21 22:43 13.86906 52.56503 38906 ft 478 kts 30°
2026-04-21 22:44 13.92554 52.60106 38906 ft 478 kts 30°
2026-04-21 22:44 13.98203 52.63712 38905 ft 478 kts 30°
2026-04-21 22:45 14.03860 52.67326 38905 ft 478 kts 30°
2026-04-21 22:45 14.09473 52.70913 38905 ft 478 kts 30°
2026-04-21 22:46 14.15121 52.74525 38905 ft 478 kts 30°
2026-04-21 22:46 14.20769 52.78139 38906 ft 478 kts 30°
2026-04-21 22:47 14.26411 52.81752 38905 ft 478 kts 30°
2026-04-21 22:47 14.32073 52.85379 38905 ft 478 kts 30°
2026-04-21 22:48 14.37715 52.88997 38905 ft 478 kts 30°
2026-04-21 22:48 14.43361 52.92611 38905 ft 478 kts 30°
2026-04-21 22:49 14.48980 52.96218 38906 ft 478 kts 31°
2026-04-21 22:49 14.54616 52.99841 38905 ft 478 kts 31°
2026-04-21 22:50 14.60245 53.03461 38905 ft 478 kts 31°
2026-04-21 22:50 14.65913 53.07107 38905 ft 478 kts 31°
2026-04-21 22:51 14.71571 53.10712 38906 ft 478 kts 30°
2026-04-21 22:51 14.77204 53.14295 38905 ft 478 kts 30°
2026-04-21 22:52 14.82864 53.17902 38905 ft 478 kts 30°
2026-04-21 22:52 14.88527 53.21514 38905 ft 478 kts 30°
2026-04-21 22:53 14.94191 53.25129 38906 ft 478 kts 30°
2026-04-21 22:53 14.99851 53.28733 38905 ft 478 kts 30°
2026-04-21 22:54 15.05516 53.32347 38905 ft 478 kts 30°
2026-04-21 22:54 15.11136 53.35937 38905 ft 478 kts 30°
2026-04-21 22:55 15.16787 53.39548 38905 ft 478 kts 30°
2026-04-21 22:55 15.22448 53.43163 38906 ft 478 kts 30°
2026-04-21 22:56 15.28102 53.46786 38905 ft 478 kts 30°
2026-04-21 22:56 15.33773 53.50422 38905 ft 478 kts 30°
2026-04-21 22:57 15.39419 53.54044 38905 ft 478 kts 30°
2026-04-21 22:57 15.45031 53.57659 38906 ft 478 kts 31°
2026-04-21 22:58 15.50625 53.61397 38905 ft 478 kts 31°
2026-04-21 22:58 15.56212 53.65133 38905 ft 478 kts 31°
2026-04-21 22:59 15.61823 53.68875 38905 ft 478 kts 31°
2026-04-21 22:59 15.67422 53.72602 38905 ft 478 kts 31°
2026-04-21 23:00 15.72976 53.76313 38906 ft 478 kts 31°
2026-04-21 23:00 15.78573 53.80057 38905 ft 478 kts 31°
2026-04-21 23:01 15.84159 53.83795 38905 ft 478 kts 31°
2026-04-21 23:01 15.89763 53.87541 38905 ft 478 kts 31°
2026-04-21 23:02 15.95353 53.91223 38906 ft 478 kts 31°
2026-04-21 23:02 16.00997 53.94949 38889 ft 479 kts 30°
2026-04-21 23:03 16.06621 53.98668 38876 ft 484 kts 30°
2026-04-21 23:03 16.11387 54.01823 38876 ft 486 kts 30°
2026-04-21 23:04 16.18019 54.06213 38876 ft 485 kts 30°
2026-04-21 23:04 16.23677 54.09949 38876 ft 484 kts 30°
2026-04-21 23:05 16.29368 54.13717 38875 ft 484 kts 30°
2026-04-21 23:05 16.35052 54.17486 38876 ft 484 kts 30°
2026-04-21 23:06 16.40732 54.21255 38876 ft 484 kts 30°
2026-04-21 23:06 16.46425 54.25037 38876 ft 484 kts 30°
2026-04-21 23:07 16.52115 54.28818 38876 ft 484 kts 30°
2026-04-21 23:07 16.57803 54.32601 38876 ft 484 kts 30°
2026-04-21 23:08 16.62515 54.35735 38876 ft 484 kts 30°
2026-04-21 23:08 16.68213 54.39522 38875 ft 484 kts 30°
2026-04-21 23:09 16.74819 54.43928 38876 ft 484 kts 30°
2026-04-21 23:09 16.79566 54.47097 38876 ft 484 kts 30°
2026-04-21 23:10 16.85214 54.50870 38876 ft 484 kts 30°
2026-04-21 23:10 16.90892 54.54663 38876 ft 484 kts 30°
2026-04-21 23:11 16.96565 54.58446 38875 ft 484 kts 30°
2026-04-21 23:11 17.02264 54.62244 38876 ft 484 kts 30°
2026-04-21 23:12 17.07941 54.66033 38876 ft 484 kts 30°
2026-04-21 23:12 17.13616 54.69831 38875 ft 484 kts 30°
2026-04-21 23:13 17.19267 54.73617 38848 ft 485 kts 30°
2026-04-21 23:13 17.24956 54.77428 38846 ft 484 kts 30°
2026-04-21 23:14 17.30563 54.81318 38846 ft 485 kts 33°
2026-04-21 23:14 17.36032 54.85505 38847 ft 486 kts 34°
2026-04-21 23:15 17.41485 54.89658 38846 ft 486 kts 33°
2026-04-21 23:15 17.46979 54.93799 38846 ft 486 kts 33°
2026-04-21 23:16 17.52456 54.97907 38846 ft 486 kts 33°
2026-04-21 23:16 17.57960 55.02040 38847 ft 486 kts 33°
2026-04-21 23:17 17.63439 55.06169 38846 ft 486 kts 33°
2026-04-21 23:17 17.68890 55.10282 38846 ft 486 kts 33°
2026-04-21 23:18 17.74388 55.14430 38846 ft 486 kts 33°
2026-04-21 23:18 17.79853 55.18563 38846 ft 486 kts 33°
2026-04-21 23:19 17.85353 55.22719 38846 ft 486 kts 33°
2026-04-21 23:19 17.90833 55.26871 38846 ft 486 kts 33°
2026-04-21 23:20 17.96328 55.31045 38847 ft 486 kts 33°
2026-04-21 23:20 18.01813 55.35214 38846 ft 486 kts 33°
2026-04-21 23:21 18.07259 55.39353 38846 ft 486 kts 33°
2026-04-21 23:21 18.12817 55.43373 38847 ft 485 kts 30°
2026-04-21 23:22 18.18540 55.47154 38846 ft 485 kts 30°
2026-04-21 23:22 18.24207 55.51007 38846 ft 485 kts 30°
2026-04-21 23:23 18.29850 55.54866 38847 ft 485 kts 30°
2026-04-21 23:23 18.35479 55.58719 38846 ft 485 kts 30°
2026-04-21 23:24 18.41117 55.62587 38846 ft 485 kts 31°
2026-04-21 23:24 18.46778 55.66478 38846 ft 485 kts 31°
2026-04-21 23:25 18.52421 55.70360 38847 ft 485 kts 31°
2026-04-21 23:25 18.58073 55.74252 38846 ft 485 kts 31°
2026-04-21 23:26 18.63697 55.78122 38846 ft 485 kts 30°
2026-04-21 23:26 18.69382 55.82027 38846 ft 485 kts 31°
2026-04-21 23:27 18.75044 55.85918 38847 ft 485 kts 31°
2026-04-21 23:27 18.80653 55.89790 38846 ft 485 kts 31°
2026-04-21 23:28 18.86309 55.93701 38846 ft 485 kts 31°
2026-04-21 23:28 18.91964 55.97613 38846 ft 485 kts 31°
2026-04-21 23:29 18.97731 56.01177 38842 ft 482 kts 21°
2026-04-21 23:29 19.04115 56.03287 38847 ft 480 kts 11°
2026-04-21 23:30 19.10596 56.04860 38846 ft 478 kts 11°
2026-04-21 23:30 19.17063 56.06517 38846 ft 477 kts 12°
2026-04-21 23:31 19.23522 56.08238 38846 ft 478 kts 12°
2026-04-21 23:31 19.29985 56.09976 38846 ft 478 kts 12°
2026-04-21 23:32 19.36388 56.11695 38847 ft 478 kts 12°
2026-04-21 23:32 19.42852 56.13436 38846 ft 478 kts 12°
2026-04-21 23:33 19.49305 56.15178 38846 ft 478 kts 12°
2026-04-21 23:33 19.55745 56.16918 38846 ft 478 kts 12°
2026-04-21 23:34 19.62218 56.18668 38846 ft 478 kts 12°
2026-04-21 23:34 19.68627 56.20399 38847 ft 478 kts 12°
2026-04-21 23:35 19.75082 56.22146 38846 ft 478 kts 12°
2026-04-21 23:35 19.81522 56.23894 38846 ft 478 kts 12°
2026-04-21 23:36 19.87930 56.25635 38847 ft 478 kts 12°
2026-04-21 23:36 19.94414 56.27391 38845 ft 478 kts 11°
2026-04-21 23:37 20.01009 56.28189 38846 ft 475 kts 360°
2026-04-21 23:37 20.07554 56.28194 38846 ft 474 kts 357°
2026-04-21 23:38 20.14171 56.28144 38846 ft 473 kts 358°
2026-04-21 23:38 20.20758 56.28143 38846 ft 473 kts 358°
2026-04-21 23:39 20.27352 56.28152 38846 ft 474 kts 358°
2026-04-21 23:39 20.33946 56.28163 38847 ft 474 kts 358°
2026-04-21 23:40 20.40556 56.28174 38846 ft 474 kts 358°
2026-04-21 23:40 20.47096 56.28185 38846 ft 474 kts 358°
2026-04-21 23:41 20.53746 56.28197 38846 ft 474 kts 358°
2026-04-21 23:41 20.60255 56.27752 38847 ft 472 kts 351°
2026-04-21 23:42 20.66759 56.26722 38846 ft 472 kts 349°
2026-04-21 23:42 20.73248 56.25680 38847 ft 471 kts 350°
2026-04-21 23:43 20.79745 56.24718 38846 ft 471 kts 350°
2026-04-21 23:43 20.86219 56.23776 38846 ft 472 kts 350°
2026-04-21 23:44 20.92724 56.22834 38847 ft 472 kts 350°
2026-04-21 23:44 20.99241 56.21894 38846 ft 472 kts 350°
2026-04-21 23:45 21.08990 56.20479 38846 ft 472 kts 350°
2026-04-21 23:46 21.15515 56.19530 38846 ft 472 kts 350°
2026-04-21 23:46 21.21977 56.18590 38846 ft 472 kts 350°
2026-04-21 23:47 21.28473 56.17644 38846 ft 472 kts 350°
2026-04-21 23:47 21.34994 56.16690 38846 ft 472 kts 350°
2026-04-21 23:48 21.41493 56.15739 38846 ft 472 kts 350°
2026-04-21 23:48 21.48005 56.14784 38846 ft 472 kts 350°
2026-04-21 23:49 21.54506 56.13830 38846 ft 472 kts 350°
2026-04-21 23:49 21.61030 56.12872 38846 ft 472 kts 350°
2026-04-21 23:50 21.67494 56.11926 38846 ft 472 kts 350°
2026-04-21 23:50 21.74000 56.10973 38846 ft 472 kts 350°
2026-04-21 23:51 21.80509 56.10016 38846 ft 472 kts 350°
2026-04-21 23:51 21.87017 56.09056 38846 ft 472 kts 350°
2026-04-21 23:52 21.93527 56.08096 38846 ft 472 kts 350°
2026-04-21 23:52 22.00035 56.07135 38846 ft 472 kts 350°
2026-04-21 23:53 22.06530 56.06173 38846 ft 472 kts 350°
2026-04-21 23:53 22.13003 56.05213 38846 ft 472 kts 350°
2026-04-21 23:54 22.19517 56.04243 38846 ft 472 kts 350°
2026-04-21 23:54 22.26034 56.03271 38846 ft 472 kts 350°
2026-04-21 23:55 22.32548 56.02299 38846 ft 472 kts 350°
2026-04-21 23:55 22.39002 56.01336 38846 ft 472 kts 350°
2026-04-21 23:56 22.45521 56.00370 38846 ft 472 kts 350°
2026-04-21 23:56 22.50986 55.99562 38846 ft 472 kts 350°
2026-04-21 23:57 22.57445 55.98605 38846 ft 472 kts 350°
2026-04-21 23:57 22.63954 55.97636 38846 ft 472 kts 350°
2026-04-21 23:58 22.70466 55.96666 38845 ft 472 kts 347°
2026-04-21 23:58 22.76992 55.95694 38760 ft 474 kts 347°
2026-04-21 23:59 22.83513 55.94723 38758 ft 474 kts 347°
2026-04-21 23:59 22.90054 55.93749 38758 ft 474 kts 347°
2026-04-22 00:00 22.96582 55.92774 38757 ft 474 kts 347°
2026-04-22 00:00 23.03139 55.91795 38757 ft 474 kts 347°
2026-04-22 00:01 23.09673 55.90812 38758 ft 474 kts 347°
2026-04-22 00:01 23.16220 55.89826 38551 ft 476 kts 347°
2026-04-22 00:01 23.19485 55.89334 37861 ft 478 kts 346°
2026-04-22 00:02 23.22776 55.88838 37252 ft 476 kts 346°
2026-04-22 00:02 23.26035 55.88350 36779 ft 471 kts 346°
2026-04-22 00:02 23.29256 55.87865 36311 ft 466 kts 346°
2026-04-22 00:02 23.32469 55.87380 35852 ft 461 kts 346°
2026-04-22 00:03 23.35586 55.86909 35403 ft 457 kts 346°
2026-04-22 00:03 23.38649 55.86446 35117 ft 449 kts 345°
2026-04-22 00:03 23.41791 55.85971 34674 ft 445 kts 345°
2026-04-22 00:03 23.44841 55.85509 34234 ft 441 kts 345°
2026-04-22 00:04 23.47833 55.85056 33811 ft 437 kts 345°
2026-04-22 00:04 23.50822 55.84603 33406 ft 433 kts 345°
2026-04-22 00:04 23.53801 55.84152 33012 ft 428 kts 345°
2026-04-22 00:04 23.56743 55.83708 32630 ft 423 kts 345°
2026-04-22 00:05 23.59648 55.83273 32243 ft 418 kts 345°
2026-04-22 00:05 23.62513 55.82842 31876 ft 413 kts 344°
2026-04-22 00:05 23.65306 55.82422 31483 ft 409 kts 344°
2026-04-22 00:05 23.68115 55.82008 31082 ft 405 kts 345°
2026-04-22 00:06 23.70941 55.81859 30679 ft 408 kts 352°
2026-04-22 00:06 23.73799 55.81991 30247 ft 410 kts 355°
2026-04-22 00:06 23.76631 55.82262 29824 ft 409 kts 358°
2026-04-22 00:06 23.79462 55.82595 29373 ft 408 kts 358°
2026-04-22 00:07 23.82289 55.82922 28901 ft 407 kts 358°
2026-04-22 00:07 23.85104 55.83233 28416 ft 406 kts 358°
2026-04-22 00:07 23.87908 55.83534 27959 ft 405 kts 359°
2026-04-22 00:07 23.90521 55.83810 27533 ft 404 kts 359°
2026-04-22 00:08 23.92402 55.84007 27237 ft 403 kts 359°
2026-04-22 00:08 23.95047 55.84284 26829 ft 402 kts 360°
2026-04-22 00:08 23.97799 55.84570 26405 ft 400 kts
2026-04-22 00:08 24.00561 55.84855 25979 ft 399 kts
2026-04-22 00:09 24.03325 55.85141 25554 ft 397 kts
2026-04-22 00:09 24.06045 55.85423 25140 ft 395 kts
2026-04-22 00:09 24.08787 55.85709 24731 ft 394 kts
2026-04-22 00:09 24.11510 55.85992 24341 ft 391 kts
2026-04-22 00:10 24.14211 55.86274 23949 ft 389 kts
2026-04-22 00:10 24.16898 55.86554 23561 ft 386 kts
2026-04-22 00:10 24.19557 55.86831 23171 ft 384 kts
2026-04-22 00:10 24.22221 55.87109 22780 ft 381 kts
2026-04-22 00:11 24.24845 55.87383 22398 ft 379 kts
2026-04-22 00:11 24.27469 55.87656 22017 ft 376 kts
2026-04-22 00:11 24.30035 55.87927 21643 ft 374 kts
2026-04-22 00:11 24.32606 55.88313 21267 ft 373 kts
2026-04-22 00:12 24.35142 55.88898 20877 ft 373 kts 12°
2026-04-22 00:12 24.37538 55.90018 20528 ft 375 kts 24°
2026-04-22 00:12 24.39719 55.91606 20147 ft 377 kts 33°
2026-04-22 00:12 24.41739 55.93440 19755 ft 377 kts 38°
2026-04-22 00:13 24.43645 55.95388 19373 ft 376 kts 40°
2026-04-22 00:13 24.45396 55.97231 19143 ft 369 kts 39°
2026-04-22 00:13 24.47264 55.99148 18795 ft 366 kts 39°
2026-04-22 00:13 24.49144 56.01036 18401 ft 366 kts 38°
2026-04-22 00:14 24.51018 56.02910 18014 ft 365 kts 39°
2026-04-22 00:14 24.52882 56.04777 17632 ft 363 kts 39°
2026-04-22 00:14 24.54747 56.06648 17246 ft 360 kts 39°
2026-04-22 00:14 24.56578 56.08474 16865 ft 359 kts 39°
2026-04-22 00:15 24.58452 56.10262 16472 ft 353 kts 34°
2026-04-22 00:15 24.60553 56.11606 16099 ft 346 kts 20°
2026-04-22 00:15 24.62805 56.12472 15704 ft 341 kts 12°
2026-04-22 00:15 24.65100 56.13112 15301 ft 339 kts
2026-04-22 00:16 24.67410 56.13583 14912 ft 336 kts
2026-04-22 00:16 24.69719 56.13964 14568 ft 333 kts
2026-04-22 00:16 24.71973 56.14344 14446 ft 323 kts
2026-04-22 00:16 24.74187 56.14742 14098 ft 322 kts
2026-04-22 00:17 24.76394 56.15142 13719 ft 320 kts
2026-04-22 00:17 24.78590 56.15216 13342 ft 313 kts 351°
2026-04-22 00:17 24.80706 56.14739 12967 ft 309 kts 340°
2026-04-22 00:17 24.82711 56.14016 12600 ft 307 kts 336°
2026-04-22 00:18 24.84692 56.13145 12233 ft 305 kts 333°
2026-04-22 00:18 24.86411 56.12290 11897 ft 304 kts 332°
2026-04-22 00:18 24.88329 56.11297 11514 ft 304 kts 332°
2026-04-22 00:18 24.90229 56.10330 11251 ft 292 kts 332°
2026-04-22 00:19 24.91988 56.09449 11185 ft 268 kts 332°
2026-04-22 00:19 24.93658 56.08616 11115 ft 258 kts 332°
2026-04-22 00:19 24.95266 56.07816 11044 ft 248 kts 332°
2026-04-22 00:19 24.96676 56.06835 10963 ft 234 kts 314°
2026-04-22 00:20 24.97522 56.05333 10765 ft 234 kts 291°
2026-04-22 00:20 24.97929 56.03562 10486 ft 244 kts 279°
2026-04-22 00:20 24.98113 56.01711 10198 ft 246 kts 275°
2026-04-22 00:20 24.98236 55.99844 9911 ft 243 kts 273°
2026-04-22 00:21 24.98323 55.97996 9628 ft 240 kts 272°
2026-04-22 00:21 24.98426 55.96162 9346 ft 237 kts 274°
2026-04-22 00:21 24.98564 55.94362 9071 ft 235 kts 274°
2026-04-22 00:21 24.98723 55.92586 8802 ft 236 kts 275°
2026-04-22 00:22 24.98897 55.90773 8526 ft 235 kts 275°
2026-04-22 00:22 24.99071 55.88992 8256 ft 234 kts 275°
2026-04-22 00:22 24.99247 55.87194 7986 ft 234 kts 275°
2026-04-22 00:22 24.99419 55.85437 7728 ft 242 kts 275°
2026-04-22 00:23 24.99666 55.83570 7444 ft 242 kts 281°
2026-04-22 00:23 25.00148 55.81980 7213 ft 240 kts 288°
2026-04-22 00:23 25.00827 55.80313 6935 ft 238 kts 294°
2026-04-22 00:23 25.01631 55.78732 6667 ft 236 kts 297°
2026-04-22 00:24 25.02498 55.77205 6406 ft 233 kts 300°
2026-04-22 00:24 25.03410 55.75734 6151 ft 231 kts 301°
2026-04-22 00:24 25.04292 55.74262 5892 ft 228 kts 299°
2026-04-22 00:24 25.05120 55.72782 5630 ft 228 kts 298°
2026-04-22 00:25 25.05941 55.71271 5371 ft 228 kts 297°
2026-04-22 00:25 25.06736 55.69780 5121 ft 227 kts 297°
2026-04-22 00:25 25.06824 55.69616 5094 ft 227 kts 297°
2026-04-22 00:25 25.07565 55.68263 5006 ft 217 kts 298°
2026-04-22 00:26 25.08339 55.66884 4952 ft 207 kts 298°
2026-04-22 00:26 25.09101 55.65534 4911 ft 209 kts 298°
2026-04-22 00:26 25.09871 55.64170 4863 ft 208 kts 298°
2026-04-22 00:26 25.10616 55.62831 4838 ft 203 kts 297°
2026-04-22 00:27 25.11364 55.61494 4548 ft 205 kts 299°
2026-04-22 00:27 25.12094 55.60187 4283 ft 199 kts 300°
2026-04-22 00:27 25.12799 55.58923 4013 ft 188 kts 301°
2026-04-22 00:27 25.13472 55.57714 3765 ft 182 kts 302°
2026-04-22 00:28 25.14048 55.56678 3580 ft 180 kts 302°
2026-04-22 00:28 25.14695 55.55515 3348 ft 180 kts 302°
2026-04-22 00:28 25.15345 55.54344 3095 ft 176 kts 301°
2026-04-22 00:28 25.15975 55.53211 2857 ft 172 kts 301°
2026-04-22 00:29 25.16591 55.52101 2628 ft 168 kts 301°
2026-04-22 00:29 25.17204 55.50998 2417 ft 168 kts 301°
2026-04-22 00:29 25.17813 55.49902 2217 ft 166 kts 301°
2026-04-22 00:29 25.18388 55.48866 1991 ft 152 kts 303°
2026-04-22 00:30 25.18925 55.47898 1768 ft 148 kts 304°
2026-04-22 00:30 25.19285 55.47249 1637 ft 149 kts 303°
2026-04-22 00:30 25.19476 55.46906 1574 ft 150 kts 303°
2026-04-22 00:30 25.20023 55.45920 1382 ft 151 kts 303°
2026-04-22 00:31 25.20575 55.44926 1181 ft 151 kts 303°
2026-04-22 00:31 25.21124 55.43936 978 ft 150 kts 303°
2026-04-22 00:31 25.21664 55.42963 780 ft 147 kts 304°
2026-04-22 00:31 25.22192 55.42012 574 ft 149 kts 302°
2026-04-22 00:32 25.22742 55.41020 391 ft 150 kts 302°
2026-04-22 00:32 25.23229 55.40143 237 ft 146 kts 303°
2026-04-22 00:32 25.23759 55.39191 59 ft 146 kts 299°
2026-04-22 00:32 25.24231 55.38335 48 ft 111 kts 302°
2026-04-22 00:33 25.24559 55.37752 48 ft 67 kts 303°
2026-04-22 00:33 25.24717 55.37460 48 ft 31 kts 299°
2026-04-22 00:33 25.24774 55.37290 48 ft 14 kts 283°
2026-04-22 00:33 25.24785 55.37218 48 ft 9 kts 271°
2026-04-22 00:34 25.24787 55.37150 48 ft 9 kts 271°
2026-04-22 00:34 25.24788 55.37086 48 ft 8 kts 271°
2026-04-22 00:34 25.24790 55.37025 48 ft 8 kts 271°
2026-04-22 00:34 25.24782 55.36970 48 ft 7 kts 235°
2026-04-22 00:35 25.24746 55.36933 48 ft 7 kts 226°
2026-04-22 00:35 25.24731 55.36888 48 ft 7 kts 284°
2026-04-22 00:35 25.24751 55.36844 48 ft 6 kts 297°
2026-04-22 00:35 25.24767 55.36801 48 ft 6 kts 289°
2026-04-22 00:36 25.24782 55.36731 48 ft 11 kts 281°
2026-04-22 00:36 25.24800 55.36656 48 ft 9 kts 291°
2026-04-22 00:36 25.24816 55.36617 48 ft 5 kts 296°
2026-04-22 00:36 25.24830 55.36588 48 ft 4 kts 299°
2026-04-22 00:37 25.24845 55.36560 48 ft 4 kts 301°
2026-04-22 00:37 25.24858 55.36535 48 ft 4 kts 301°
2026-04-22 00:37 25.24871 55.36512 48 ft 3 kts 301°
2026-04-22 00:37 25.24882 55.36492 48 ft 3 kts 301°
2026-04-22 00:38 25.24892 55.36474 48 ft 3 kts 301°
2026-04-22 00:38 25.24901 55.36458 48 ft 2 kts 301°
2026-04-22 00:38 25.24911 55.36437 48 ft 4 kts 285°
2026-04-22 00:38 25.24908 55.36416 48 ft 4 kts 245°
2026-04-22 00:39 25.24877 55.36392 48 ft 4 kts 209°
2026-04-22 00:39 25.24859 55.36380 48 ft 0 kts 211°
2026-04-22 00:39 25.24847 55.36372 48 ft 2 kts 211°
2026-04-22 00:39 25.24838 55.36366 48 ft 0 kts 211°
2026-04-22 00:40 25.24837 55.36366 48 ft 2 kts 212°
2026-04-22 00:40 25.24834 55.36363 48 ft 0 kts 212°
2026-04-22 00:40 25.24835 55.36364 48 ft 1 kts 212°